W4HSV Weather Reports


time (UTC)temp
F
wind
direction
speed
knots
gust
knots
rain 1hr
in
rain 24hr
in
rain mn
in
humidity
%
barometer
mb
20260507104023 54 18 3.5 7.8 0.00 2.62 0.31 96 1011.7
20260507103930 54 348 3.5 7.8 0.00 2.62 0.31 96 1011.7
20260507103818 54 13 4.3 7.8 0.00 2.62 0.31 96 1011.8
20260507103730 54 34 4.3 9.6 0.00 2.62 0.31 96 1011.8
20260507103638 54 31 3.5 9.6 0.00 2.62 0.31 96 1012.0
20260507103607 54 5 3.5 9.6 0.00 2.62 0.31 96 1012.0
20260507103319 54 355 2.6 9.6 0.00 2.62 0.31 96 1012.1
20260507103226 54 5 3.5 9.6 0.00 2.62 0.31 96 1012.1
20260507103118 54 360 5.2 9.6 0.00 2.62 0.31 96 1012.1
20260507103026 54 5 6.1 9.6 0.00 2.62 0.31 96 1012.1
20260507102934 54 12 6.1 9.6 0.00 2.62 0.31 96 1012.0
20260507102820 54 355 5.2 9.6 0.00 2.62 0.31 96 1012.0
20260507102728 54 5 5.2 9.6 0.00 2.62 0.31 96 1012.0
20260507102620 54 9 4.3 10.4 0.00 2.62 0.31 96 1011.9
20260507102527 54 346 4.3 10.4 0.00 2.62 0.31 96 1011.9
20260507102414 54 5 4.3 10.4 0.00 2.62 0.31 96 1011.9
20260507102322 54 26 4.3 10.4 0.00 2.62 0.31 96 1011.9
20260507102249 54 360 5.2 10.4 0.00 2.62 0.31 96 1011.9
20260507102117 54 355 7.0 10.4 0.00 2.62 0.31 96 1011.9
20260507102052 54 26 6.1 10.4 0.00 2.62 0.31 96 1011.9
20260507101826 54 16 4.3 10.4 0.00 2.62 0.31 96 1011.8
20260507101714 54 24 2.6 11.3 0.00 2.62 0.31 96 1011.7
20260507101622 54 355 3.5 11.3 0.00 2.62 0.31 96 1011.7
20260507101513 54 22 5.2 11.3 0.00 2.62 0.31 96 1011.8
20260507101421 54 35 5.2 11.3 0.00 2.62 0.31 96 1011.8
20260507101329 54 5 6.1 11.3 0.00 2.62 0.31 96 1011.8
20260507101236 54 355 5.2 11.3 0.00 2.62 0.31 96 1011.8
20260507101122 54 355 6.1 11.3 0.00 2.62 0.31 96 1011.8
20260507101050 54 349 6.1 11.3 0.00 2.62 0.31 96 1011.7
20260507100918 54 15 6.1 11.3 0.00 2.62 0.31 96 1011.6
20260507100829 54 340 5.2 11.3 0.00 2.62 0.31 96 1011.6
20260507100716 54 5 6.1 11.3 0.00 2.62 0.31 96 1011.5
20260507100643 54 25 7.0 11.3 0.00 2.62 0.31 96 1011.5
20260507100552 54 332 6.1 11.3 0.00 2.62 0.31 96 1011.5
20260507100311 54 57 6.1 11.3 0.00 2.62 0.31 96 1011.5
20260507100219 54 360 5.2 10.4 0.00 2.62 0.31 96 1011.5
20260507100148 54 15 4.3 9.6 0.00 2.62 0.31 96 1011.5
20260507100014 54 5 5.2 9.6 0.00 2.62 0.31 96 1011.2
20260507095921 54 331 5.2 9.6 0.00 2.62 0.31 96 1011.2
20260507095829 54 355 5.2 9.6 0.00 2.62 0.31 96 1011.2
20260507095720 54 5 5.2 9.6 0.00 2.62 0.31 96 1011.2
20260507095626 54 10 5.2 9.6 0.00 2.62 0.31 96 1011.3
20260507095534 54 5 5.2 9.6 0.00 2.62 0.31 96 1011.5
20260507095442 54 349 4.3 8.7 0.00 2.62 0.31 96 1011.5
20260507095328 54 20 4.3 8.7 0.00 2.62 0.31 96 1011.5
20260507095215 54 26 4.3 8.7 0.00 2.62 0.31 96 1011.6
20260507095142 54 53 4.3 8.7 0.00 2.62 0.31 96 1011.6
20260507095056 54 22 4.3 8.7 0.01 2.62 0.31 96 1011.6
20260507094830 54 34 5.2 8.7 0.01 2.62 0.31 96 1011.8
20260507094718 54 342 4.3 8.7 0.01 2.62 0.31 96 1011.7
20260507094626 54 5 4.3 8.7 0.01 2.62 0.31 96 1011.7
20260507094518 54 12 5.2 8.7 0.01 2.62 0.31 96 1011.6
20260507094426 54 355 5.2 8.7 0.01 2.62 0.31 96 1011.6
20260507094313 54 32 6.1 8.7 0.01 2.62 0.31 96 1011.6
20260507094220 54 5 5.2 8.7 0.01 2.62 0.31 96 1011.6
20260507094149 55 334 5.2 8.7 0.01 2.62 0.31 96 1011.8
20260507094016 55 340 4.3 9.6 0.01 2.62 0.31 96 1012.0
20260507093927 54 319 4.3 9.6 0.01 2.62 0.31 96 1012.0
20260507093813 54 336 5.2 9.6 0.01 2.62 0.31 96 1012.0
20260507093720 55 360 5.2 9.6 0.01 2.62 0.31 96 1012.0
20260507093627 55 360 5.2 12.2 0.01 2.62 0.31 96 1012.1
20260507093556 55 344 5.2 12.2 0.02 2.62 0.31 96 1012.1
20260507093314 55 350 5.2 12.2 0.03 2.62 0.31 96 1011.8
20260507093220 55 349 4.3 12.2 0.03 2.62 0.31 96 1011.8
20260507093129 55 345 4.3 12.2 0.03 2.62 0.31 96 1011.8
20260507093016 55 355 4.3 12.2 0.04 2.62 0.31 96 1011.4
20260507092924 55 30 5.2 12.2 0.04 2.62 0.31 96 1011.4
20260507092816 55 348 7.8 12.2 0.05 2.62 0.31 96 1011.3
20260507092743 55 360 7.8 12.2 0.05 2.62 0.31 96 1011.3
20260507092611 55 355 6.1 10.4 0.06 2.62 0.31 96 1011.1
20260507092520 55 355 5.2 9.6 0.06 2.62 0.31 96 1011.1
20260507092428 55 360 5.2 8.7 0.06 2.62 0.31 96 1011.0
20260507092335 55 14 4.3 8.7 0.07 2.62 0.31 96 1011.1
20260507092225 55 350 3.5 8.7 0.07 2.62 0.31 96 1011.1
20260507092133 55 17 3.5 7.8 0.07 2.62 0.31 96 1011.2
20260507092103 55 355 3.5 7.8 0.08 2.62 0.31 96 1011.1
20260507091836 55 22 4.3 8.7 0.09 2.62 0.31 96 1011.6
20260507091722 55 25 4.3 8.7 0.09 2.62 0.31 96 1011.6
20260507091614 55 360 4.3 8.7 0.11 2.62 0.31 96 1011.5
20260507091521 55 29 5.2 8.7 0.11 2.62 0.31 96 1011.5
20260507091429 55 5 5.2 9.6 0.11 2.62 0.31 96 1011.4
20260507091316 55 16 5.2 9.6 0.14 2.62 0.31 96 1011.4
20260507091223 55 5 5.2 9.6 0.14 2.62 0.31 96 1011.4
20260507091114 55 23 5.2 9.6 0.16 2.62 0.31 96 1011.7
20260507091021 55 9 4.3 9.6 0.16 2.62 0.31 96 1011.7
20260507090929 55 14 4.3 9.6 0.18 2.62 0.31 96 1011.9
20260507090817 55 349 4.3 9.6 0.21 2.62 0.31 96 1011.9
20260507090725 55 360 4.3 9.6 0.21 2.62 0.31 96 1011.9
20260507090612 55 24 5.2 10.4 0.22 2.62 0.31 96 1011.8
20260507090547 55 339 4.3 10.4 0.22 2.62 0.31 96 1011.8
20260507090321 55 355 3.5 10.4 0.23 2.62 0.31 96 1012.0
20260507090227 55 40 3.5 10.4 0.24 2.62 0.31 96 1012.0
20260507090115 55 14 5.2 10.4 0.25 2.62 0.31 96 1011.9
20260507090027 55 348 5.2 10.4 0.25 2.62 0.31 96 1011.9
20260507085934 55 5 5.2 10.4 0.26 2.62 0.31 96 1011.9
20260507085820 55 355 7.0 10.4 0.26 2.62 0.31 96 1011.9
20260507085747 55 321 7.0 10.4 0.26 2.62 0.31 96 1011.9
20260507085614 55 360 6.1 10.4 0.26 2.62 0.31 96 1012.0
20260507085521 55 5 5.2 9.6 0.26 2.62 0.31 96 1012.0
20260507085413 55 5 4.3 9.6 0.26 2.62 0.31 96 1012.0
20260507085320 55 355 5.2 9.6 0.26 2.62 0.31 96 1012.0
20260507085228 55 355 5.2 9.6 0.26 2.62 0.31 96 1012.1
20260507085115 55 355 6.1 9.6 0.25 2.61 0.30 96 1012.0
20260507085046 55 355 5.2 8.7 0.25 2.61 0.30 96 1012.0
20260507084823 55 322 4.3 7.8 0.25 2.61 0.30 96 1011.8
20260507084711 55 11 3.5 8.7 0.25 2.61 0.30 96 1011.7
20260507084619 55 9 3.5 8.7 0.25 2.61 0.30 96 1011.7
20260507084526 55 13 3.5 8.7 0.25 2.61 0.30 96 1011.6
20260507084415 55 355 4.3 8.7 0.25 2.61 0.30 96 1011.3
20260507084326 55 34 3.5 8.7 0.25 2.61 0.30 96 1011.3
20260507084213 55 47 3.5 8.7 0.25 2.61 0.30 96 1011.1
20260507084119 55 73 4.3 11.3 0.25 2.61 0.30 96 1011.2
20260507084027 55 22 4.3 11.3 0.25 2.61 0.30 96 1011.2
20260507083936 55 44 5.2 11.3 0.26 2.61 0.30 96 1011.2
20260507083821 55 355 6.1 12.2 0.26 2.61 0.30 96 1011.2
20260507083713 55 5 5.2 12.2 0.26 2.61 0.30 96 1011.2
20260507083620 55 27 4.3 12.2 0.25 2.60 0.29 96 1011.2
20260507083551 55 11 4.3 12.2 0.25 2.60 0.29 96 1011.1
20260507083324 55 355 6.1 12.2 0.24 2.59 0.28 96 1011.4
20260507083213 55 19 8.7 12.2 0.24 2.59 0.28 95 1010.5
20260507083125 55 42 7.8 12.2 0.23 2.58 0.27 95 1010.5
20260507083012 55 34 6.1 12.2 0.23 2.58 0.27 95 1010.7
20260507082941 55 51 4.3 9.6 0.22 2.57 0.26 96 1010.7
20260507082828 55 360 4.3 9.6 0.23 2.57 0.26 95 1011.3
20260507082714 55 355 4.3 9.6 0.24 2.57 0.26 95 1012.0
20260507082620 55 28 4.3 10.4 0.23 2.56 0.25 95 1012.0
20260507082511 55 355 5.2 11.3 0.25 2.56 0.25 95 1012.2
20260507082418 55 339 6.1 11.3 0.24 2.55 0.24 95 1012.4
20260507082326 55 17 7.0 11.3 0.24 2.55 0.24 95 1012.4
20260507082214 55 320 6.1 11.3 0.24 2.55 0.24 95 1012.5
20260507082123 55 24 6.1 11.3 0.23 2.54 0.23 95 1012.5
20260507082057 55 22 7.0 11.3 0.23 2.54 0.23 95 1012.4
20260507081811 55 345 7.8 11.3 0.22 2.53 0.22 95 1012.3
20260507081718 55 355 7.8 11.3 0.21 2.52 0.21 95 1012.3
20260507081625 55 305 7.0 11.3 0.20 2.51 0.20 95 1012.3
20260507081517 55 327 6.1 9.6 0.20 2.51 0.20 95 1012.3
20260507081444 55 337 5.2 9.6 0.19 2.50 0.19 95 1012.3
20260507081328 55 342 5.2 9.6 0.18 2.49 0.18 95 1011.9
20260507081214 55 11 5.2 9.6 0.16 2.47 0.16 95 1011.7
20260507081120 55 5 5.2 9.6 0.15 2.46 0.15 95 1011.7
20260507081028 55 324 4.3 10.4 0.14 2.45 0.14 95 1012.1
20260507080915 55 349 4.3 10.4 0.11 2.42 0.11 95 1012.4
20260507080827 55 319 4.3 10.4 0.10 2.41 0.10 95 1012.4
20260507080715 55 336 5.2 10.4 0.09 2.40 0.09 95 1012.5
20260507080621 55 348 5.2 10.4 0.09 2.40 0.09 95 1012.5
20260507080551 55 342 4.3 10.4 0.08 2.39 0.08 95 1012.5
20260507080325 55 5 5.2 10.4 0.07 2.38 0.07 95 1012.2
20260507080217 55 355 7.0 10.4 0.07 2.38 0.07 95 1011.8
20260507080125 55 5 7.8 10.4 0.06 2.37 0.06 95 1011.8
20260507080012 55 22 7.8 11.3 0.06 2.37 0.06 95 1011.2
20260507075920 55 15 7.0 11.3 0.05 2.36 0.05 95 1011.2
20260507075826 55 5 7.0 11.3 0.05 2.36 0.05 95 1011.1
20260507075737 55 5 6.1 11.3 0.05 2.36 0.05 95 1011.0
20260507075644 55 5 6.1 11.3 0.05 2.36 0.05 95 1011.0
20260507075530 55 32 6.1 11.3 0.05 2.36 0.05 95 1010.8
20260507075417 55 355 5.2 11.3 0.05 2.36 0.05 95 1010.7
20260507075345 55 28 5.2 11.3 0.05 2.36 0.05 95 1010.7
20260507075232 55 63 6.1 11.3 0.05 2.36 0.05 95 1010.7
20260507075139 55 355 7.0 11.3 0.05 2.36 0.05 95 1010.7
20260507075115 55 30 6.1 12.2 0.05 2.36 0.05 95 1010.7
20260507074827 55 45 5.2 12.2 0.05 2.36 0.05 95 1010.6
20260507074715 55 12 5.2 12.2 0.05 2.36 0.05 95 1010.8
20260507074622 55 23 5.2 12.2 0.05 2.36 0.05 95 1010.8
20260507074530 55 19 5.2 12.2 0.05 2.36 0.05 95 1010.8
20260507074420 55 5 5.2 12.2 0.05 2.36 0.05 95 1010.9
20260507074327 55 42 6.1 12.2 0.05 2.36 0.05 95 1010.9
20260507074214 55 355 7.8 12.2 0.05 2.36 0.05 95 1011.1
20260507074123 55 22 7.8 12.2 0.05 2.36 0.05 95 1011.1
20260507074010 55 42 6.1 12.2 0.05 2.36 0.05 95 1011.0
20260507073921 55 5 6.1 12.2 0.04 2.35 0.04 95 1011.0
20260507073848 55 23 7.8 12.2 0.04 2.35 0.04 95 1011.1
20260507073715 55 33 8.7 12.2 0.04 2.35 0.04 95 1011.2
20260507073643 55 26 8.7 12.2 0.04 2.35 0.04 95 1011.2
20260507073613 55 5 7.8 12.2 0.04 2.35 0.04 95 1011.2
20260507073345 55 360 7.0 12.2 0.04 2.35 0.04 95 1011.4
20260507073214 55 344 7.0 12.2 0.04 2.35 0.04 95 1011.7
20260507073120 55 24 7.0 12.2 0.04 2.35 0.04 95 1011.7
20260507073027 55 34 7.8 12.2 0.04 2.35 0.04 95 1011.6
20260507072913 55 18 8.7 12.2 0.03 2.34 0.03 95 1011.7
20260507072820 55 15 8.7 12.2 0.02 2.33 0.02 95 1011.7
20260507072728 55 14 8.7 12.2 0.02 2.33 0.02 95 1011.8
20260507072619 55 39 8.7 12.2 0.01 2.32 0.01 95 1012.0
20260507072527 55 5 7.8 12.2 0.00 2.31 0.00 95 1012.5
20260507072413 55 360 7.0 12.2 0.00 2.31 0.00 95 1013.3
20260507072320 55 345 7.8 12.2 0.00 2.31 0.00 95 1013.3
20260507072227 55 307 8.7 12.2 0.00 2.31 0.00 95 1013.4
20260507072136 55 311 7.8 12.2 0.00 2.31 0.00 95 1013.3
20260507072110 55 327 6.1 12.2 0.00 2.31 0.00 95 1013.7
20260507071844 55 16 6.1 12.2 0.00 2.31 0.00 95 1012.3
20260507071729 55 5 7.8 12.2 0.00 2.31 0.00 95 1012.1
20260507071618 55 27 7.8 13.0 0.00 2.31 0.00 95 1011.6
20260507071526 55 11 7.8 13.0 0.00 2.31 0.00 95 1011.6
20260507071417 55 360 7.8 13.0 0.00 2.31 0.00 95 1011.4
20260507071323 55 57 7.8 13.0 0.00 2.31 0.00 95 1011.4
20260507071211 55 15 7.8 13.0 0.00 2.31 0.00 95 1011.3
20260507071117 55 25 7.8 13.0 0.00 2.31 0.00 95 1011.2
20260507071024 55 35 7.0 13.0 0.00 2.31 0.00 95 1011.2
20260507070915 55 42 8.7 13.0 0.00 2.31 0.00 95 1011.2
20260507070822 55 9 8.7 13.0 0.00 2.31 0.00 95 1011.2
20260507070729 55 42 7.0 12.2 0.00 2.31 0.00 95 1011.2
20260507070637 55 45 6.1 12.2 0.00 2.31 0.00 95 1011.3
20260507070547 55 67 7.0 12.2 0.00 2.31 0.00 95 1011.3
20260507070323 55 31 7.8 12.2 0.00 2.31 0.00 95 1011.3
20260507070231 55 14 8.7 12.2 0.00 2.31 0.00 95 1011.3
20260507070116 55 29 7.0 11.3 0.00 2.31 0.00 95 1011.6
20260507070022 55 5 7.0 11.3 0.00 2.31 0.00 95 1011.6
20260507065930 55 360 7.0 11.3 0.00 2.31 0.00 95 1011.6
20260507065816 55 355 5.2 11.3 0.00 2.31 0.00 95 1011.7
20260507065743 55 355 4.3 11.3 0.00 2.31 0.00 95 1011.7
20260507065613 55 17 5.2 11.3 0.00 2.31 0.00 95 1011.7
20260507065521 55 20 6.1 13.0 0.00 2.31 0.00 95 1011.7
20260507065449 55 5 7.0 13.0 0.00 2.31 0.00 95 1011.9
20260507065317 55 39 7.8 13.0 0.00 2.31 0.00 95 1011.9
20260507065223 55 349 7.0 13.0 0.00 2.31 0.00 95 1011.9
20260507065131 55 10 7.0 13.0 0.00 2.31 0.00 95 1012.0
20260507065104 55 32 7.0 13.0 0.00 2.31 0.00 95 1012.0
20260507064817 55 17 7.8 13.0 0.00 2.31 0.00 95 1012.2
20260507064745 55 355 7.8 13.0 0.00 2.31 0.00 95 1012.2
20260507064610 55 5 7.0 12.2 0.00 2.31 0.00 95 1012.2
20260507064517 55 13 7.0 12.2 0.00 2.31 0.00 95 1012.2
20260507064429 55 355 7.0 12.2 0.00 2.31 0.00 95 1012.2
20260507064317 55 16 6.1 12.2 0.00 2.31 0.00 95 1012.1
20260507064242 55 355 7.0 10.4 0.00 2.31 0.00 95 1012.1
20260507064130 55 355 7.0 10.4 0.00 2.31 0.00 95 1012.2
20260507064016 55 45 6.1 12.2 0.00 2.31 0.00 95 1012.2
20260507063925 55 355 5.2 13.0 0.00 2.31 0.00 95 1012.2
20260507063837 55 360 5.2 13.0 0.00 2.31 0.00 95 1012.3
20260507063723 55 355 5.2 13.0 0.00 2.31 0.00 95 1012.3
20260507063651 55 350 6.1 13.0 0.00 2.31 0.00 95 1012.2
20260507063601 55 5 7.0 13.0 0.00 2.31 0.00 95 1012.2
20260507063334 55 5 7.8 13.0 0.00 2.31 0.00 95 1012.1
20260507063225 55 32 8.7 13.0 0.00 2.31 0.00 95 1012.1
20260507063112 55 24 8.7 13.0 0.00 2.31 0.00 95 1011.8
20260507063039 55 346 6.1 11.3 0.00 2.31 0.00 95 1011.7
20260507062925 55 360 6.1 11.3 0.00 2.31 0.00 95 1011.7
20260507062813 55 346 7.8 13.0 0.00 2.31 0.00 95 1011.3
20260507062721 55 34 7.0 13.0 0.00 2.31 0.00 95 1011.3
20260507062611 55 14 6.1 13.0 0.00 2.31 0.00 96 1011.2
20260507062518 55 355 6.1 13.0 0.00 2.31 0.00 96 1011.3
20260507062427 55 9 7.0 13.0 0.00 2.31 0.00 96 1011.3
20260507062315 55 15 7.0 13.0 0.00 2.31 0.00 96 1011.5
20260507062242 55 355 7.0 13.0 0.00 2.31 0.00 96 1011.5
20260507062149 55 24 7.0 13.0 0.00 2.31 0.00 96 1011.5
20260507062123 55 5 7.0 13.0 0.00 2.31 0.00 96 1011.6
20260507061835 55 16 7.0 13.0 0.00 2.31 0.00 96 1011.9
20260507061741 55 355 7.0 13.0 0.00 2.31 0.00 96 1011.9
20260507061629 55 20 7.8 13.0 0.00 2.31 0.00 96 1012.0
20260507061515 55 28 7.0 13.0 0.00 2.31 0.00 96 1012.2
20260507061423 55 5 6.1 12.2 0.00 2.31 0.00 96 1012.2
20260507061313 55 355 6.1 12.2 0.00 2.31 0.00 96 1012.2
20260507061221 55 43 7.0 12.2 0.00 2.31 0.00 96 1012.2
20260507061128 55 22 7.0 10.4 0.00 2.31 0.00 96 1012.2
20260507061015 55 42 5.2 10.4 0.00 2.31 0.00 96 1012.2
20260507060942 55 360 4.3 8.7 0.00 2.31 0.00 96 1012.2
20260507060849 55 11 4.3 8.7 0.00 2.31 0.00 96 1012.2
20260507060719 55 11 5.2 8.7 0.00 2.31 0.00 96 1012.2
20260507060626 55 348 5.2 10.4 0.00 2.31 0.00 96 1012.3
20260507060558 56 22 4.3 10.4 0.00 2.31 0.00 96 1012.4
20260507060311 56 355 5.2 10.4 0.00 2.31 0.00 96 1012.3
20260507060222 56 5 5.2 10.4 0.00 2.31 0.00 96 1012.3
20260507060126 56 5 4.3 10.4 0.00 2.31 0.00 96 1012.4
20260507060014 56 21 4.3 10.4 0.00 2.31 0.00 96 1012.5
20260507055942 56 340 6.1 10.4 0.00 2.31 0.00 96 1012.5
20260507055829 56 19 6.1 10.4 0.00 2.31 0.00 96 1012.6
20260507055715 56 9 7.0 10.4 0.00 2.31 0.00 96 1012.5
20260507055622 56 5 7.0 10.4 0.00 2.31 0.00 96 1012.5
20260507055513 56 11 5.2 10.4 0.00 2.31 0.00 96 1012.5
20260507055421 56 348 6.1 10.4 0.00 2.31 0.00 96 1012.5
20260507055329 56 22 6.1 10.4 0.00 2.31 0.00 96 1012.5
20260507055217 56 355 3.5 9.6 0.00 2.31 0.00 96 1012.6
20260507055124 56 355 3.5 8.7 0.00 2.31 0.00 96 1012.6
20260507055058 56 34 3.5 8.7 0.00 2.31 0.00 96 1012.7
20260507054832 56 17 3.5 8.7 0.00 2.31 0.00 96 1012.5
20260507054719 56 348 3.5 8.7 0.00 2.31 0.00 96 1012.5
20260507054626 56 345 4.3 8.7 0.00 2.31 0.00 96 1012.4
20260507054515 56 13 4.3 10.4 0.00 2.31 0.00 96 1012.7
20260507054426 56 9 5.2 10.4 0.00 2.31 0.00 96 1012.7
20260507054314 56 350 5.2 10.4 0.00 2.31 2.31 96 1012.7
20260507054243 56 355 4.3 10.4 0.00 2.31 2.31 96 1012.7
20260507054129 56 18 3.5 10.4 0.00 2.31 2.31 96 1012.7
20260507054017 56 345 2.6 10.4 0.00 2.31 2.31 96 1012.6
20260507053945 56 11 3.5 10.4 0.00 2.31 2.31 96 1012.6
20260507053817 56 16 5.2 10.4 0.00 2.31 2.31 96 1012.7
20260507053724 56 348 6.1 10.4 0.00 2.31 2.31 96 1012.7
20260507053632 56 30 5.2 10.4 0.00 2.31 2.31 96 1012.6
20260507053605 56 348 4.3 9.6 0.00 2.31 2.31 96 1012.5
20260507053322 56 25 5.2 9.6 0.00 2.31 2.31 96 1012.3
20260507053229 56 330 5.2 9.6 0.00 2.31 2.31 96 1012.3
20260507053136 56 9 4.3 9.6 0.00 2.31 2.31 96 1012.1
20260507053041 56 15 4.3 9.6 0.00 2.31 2.31 96 1012.1
20260507052928 56 355 4.3 9.6 0.00 2.31 2.31 96 1012.1
20260507052815 56 37 6.1 9.6 0.00 2.31 2.31 96 1012.1
20260507052723 56 34 6.1 9.6 0.00 2.31 2.31 96 1012.1
20260507052616 56 350 5.2 9.6 0.00 2.31 2.31 96 1012.3
20260507052543 56 9 6.1 9.6 0.00 2.31 2.31 96 1012.3
20260507052429 56 17 6.1 9.6 0.00 2.31 2.31 96 1012.3
20260507052337 56 360 4.3 9.6 0.00 2.31 2.31 96 1012.2
20260507052243 56 33 4.3 9.6 0.00 2.31 2.31 96 1012.2
20260507052129 56 5 4.3 8.7 0.00 2.31 2.31 96 1012.1
20260507052104 56 46 4.3 8.7 0.00 2.31 2.31 96 1012.1
20260507051817 56 19 5.2 8.7 0.00 2.31 2.31 96 1012.2
20260507051725 56 9 5.2 8.7 0.00 2.31 2.31 96 1012.2
20260507051611 56 21 4.3 8.7 0.00 2.31 2.31 96 1012.3
20260507051518 56 35 4.3 8.7 0.00 2.31 2.31 96 1012.3
20260507051429 56 15 4.3 8.7 0.00 2.31 2.31 96 1012.3
20260507051317 56 360 6.1 9.6 0.00 2.31 2.31 96 1012.4
20260507051225 56 31 4.3 9.6 0.00 2.31 2.31 96 1012.4
20260507051113 56 355 3.5 9.6 0.00 2.31 2.31 96 1012.4
20260507051040 56 15 4.3 9.6 0.00 2.31 2.31 96 1012.4
20260507050947 56 355 4.3 9.6 0.00 2.31 2.31 96 1012.4
20260507050818 56 5 5.2 9.6 0.00 2.31 2.31 96 1012.4
20260507050745 56 27 5.2 9.6 0.00 2.31 2.31 96 1012.4
20260507050631 56 360 6.1 9.6 0.00 2.31 2.31 96 1012.5
20260507050602 56 32 6.1 9.6 0.00 2.31 2.31 96 1012.5
20260507050316 56 5 6.1 8.7 0.00 2.31 2.31 96 1012.6
20260507050227 56 360 5.2 7.8 0.00 2.31 2.31 96 1012.6
20260507050114 56 345 4.3 7.0 0.00 2.31 2.31 96 1012.4
20260507050021 56 341 4.3 7.0 0.00 2.31 2.31 96 1012.6
20260507045929 56 323 5.2 7.0 0.00 2.31 2.31 96 1012.6
20260507045817 56 347 4.3 7.0 0.00 2.31 2.31 96 1012.4
20260507045729 56 21 3.5 7.8 0.00 2.31 2.31 96 1012.4
20260507045617 56 9 3.5 8.7 0.00 2.31 2.31 96 1012.3
20260507045525 56 360 3.5 8.7 0.00 2.31 2.31 96 1012.3
20260507045412 56 9 4.3 8.7 0.00 2.31 2.31 96 1012.4
20260507045320 56 5 4.3 8.7 0.00 2.31 2.31 96 1012.5
20260507045212 56 9 4.3 8.7 0.00 2.31 2.31 96 1012.6
20260507045138 56 333 4.3 8.7 0.00 2.31 2.31 96 1012.6
20260507045048 56 10 5.2 8.7 0.00 2.31 2.31 96 1012.6
20260507044822 56 327 5.2 8.7 0.00 2.31 2.31 96 1012.6
20260507044749 56 16 4.3 8.7 0.00 2.31 2.31 96 1012.7
20260507044635 56 360 5.2 8.7 0.00 2.31 2.31 96 1012.4
20260507044526 56 351 5.2 8.7 0.00 2.31 2.31 96 1012.4
20260507044413 56 47 4.3 8.7 0.00 2.31 2.31 96 1012.3
20260507044341 56 5 5.2 10.4 0.00 2.31 2.31 96 1012.3
20260507044248 56 350 5.2 10.4 0.00 2.31 2.31 96 1012.3
20260507044115 56 348 4.3 10.4 0.00 2.31 2.31 96 1012.4
20260507044022 56 349 5.2 10.4 0.00 2.31 2.31 96 1012.4
20260507043912 56 344 5.2 10.4 0.00 2.31 2.31 96 1012.5
20260507043819 56 355 4.3 10.4 0.00 2.31 2.31 96 1012.5
20260507043725 56 346 5.2 10.4 0.00 2.31 2.31 96 1012.5
20260507043652 56 351 6.1 10.4 0.00 2.31 2.31 96 1012.5
20260507043622 56 347 6.1 9.6 0.00 2.31 2.31 96 1012.4
20260507043334 56 336 6.1 9.6 0.00 2.31 2.31 96 1012.7
20260507043224 56 347 6.1 9.6 0.00 2.31 2.31 96 1012.7
20260507043131 56 343 6.1 9.6 0.00 2.31 2.31 96 1012.7
20260507043017 56 334 6.1 9.6 0.00 2.31 2.31 96 1012.7
20260507042923 56 334 7.0 9.6 0.00 2.31 2.31 96 1012.7
20260507042811 56 342 6.1 8.7 0.00 2.31 2.31 96 1012.5
20260507042718 56 360 5.2 8.7 0.00 2.31 2.31 96 1012.6
20260507042630 56 340 5.2 9.6 0.00 2.31 2.31 96 1012.6
20260507042517 56 355 3.5 9.6 0.00 2.31 2.31 96 1012.7
20260507042424 56 323 2.6 9.6 0.00 2.31 2.31 96 1012.7
20260507042312 56 355 2.6 9.6 0.00 2.31 2.31 96 1012.5
20260507042219 56 28 3.5 9.6 0.00 2.31 2.31 96 1012.4
20260507042146 56 355 5.2 9.6 0.00 2.31 2.31 96 1012.4
20260507042100 56 337 6.1 9.6 0.00 2.31 2.31 96 1012.4
20260507041813 56 25 4.3 9.6 0.01 2.31 2.31 96 1012.0
20260507041720 56 340 3.5 8.7 0.01 2.31 2.31 96 1012.0
20260507041627 56 23 3.5 8.7 0.01 2.31 2.31 96 1012.0
20260507041517 56 25 4.3 8.7 0.01 2.31 2.31 96 1012.0
20260507041425 56 21 5.2 8.7 0.01 2.31 2.31 96 1012.0
20260507041312 56 344 6.1 8.7 0.02 2.31 2.31 96 1012.1
20260507041221 56 11 6.1 8.7 0.02 2.31 2.31 96 1012.3
20260507041129 56 24 6.1 8.7 0.02 2.31 2.31 96 1012.3
20260507041020 56 37 5.2 8.7 0.03 2.31 2.31 96 1012.5
20260507040948 56 355 5.2 8.7 0.03 2.31 2.31 96 1012.5
20260507040815 56 360 4.3 8.7 0.04 2.31 2.31 96 1012.6
20260507040722 56 334 4.3 7.8 0.04 2.31 2.31 96 1012.6
20260507040610 56 337 5.2 7.8 0.04 2.31 2.31 96 1012.7
20260507040544 56 355 5.2 7.8 0.04 2.31 2.31 96 1012.7
20260507040318 56 5 5.2 7.8 0.04 2.31 2.31 96 1012.7
20260507040224 56 360 5.2 7.8 0.04 2.31 2.31 96 1012.7
20260507040111 56 342 5.2 7.8 0.04 2.31 2.31 96 1012.8
20260507040018 56 355 4.3 7.8 0.04 2.31 2.31 96 1012.8
20260507035925 56 328 4.3 7.8 0.04 2.31 2.31 96 1012.8
20260507035836 56 355 5.2 7.8 0.04 2.31 2.31 96 1012.5
20260507035722 56 18 5.2 8.7 0.04 2.31 2.31 96 1012.5
20260507035611 56 19 5.2 8.7 0.04 2.31 2.31 96 1012.3
20260507035518 56 9 5.2 8.7 0.04 2.31 2.31 96 1012.3
20260507035426 56 9 5.2 8.7 0.04 2.31 2.31 96 1012.3
20260507035315 56 10 5.2 9.6 0.04 2.31 2.31 96 1012.1
20260507035226 56 42 5.2 9.6 0.04 2.31 2.31 96 1012.1
20260507035134 56 10 5.2 9.6 0.04 2.31 2.31 96 1011.9
20260507035105 56 5 6.1 9.6 0.04 2.31 2.31 96 1012.0
20260507034819 56 31 5.2 10.4 0.04 2.31 2.31 96 1012.2
20260507034711 56 355 5.2 10.4 0.04 2.31 2.31 96 1012.2
20260507034619 56 347 5.2 10.4 0.04 2.31 2.31 96 1012.2
20260507034528 56 11 6.1 10.4 0.04 2.31 2.31 96 1012.2
20260507034415 56 5 5.2 10.4 0.04 2.31 2.31 96 1012.2
20260507034322 56 13 4.3 10.4 0.04 2.31 2.31 96 1012.2
20260507034229 56 22 5.2 10.4 0.04 2.31 2.31 96 1012.2
20260507034120 56 355 7.0 10.4 0.04 2.31 2.31 96 1012.2
20260507034027 56 19 6.1 10.4 0.04 2.31 2.31 96 1012.2
20260507033915 56 14 5.2 9.6 0.04 2.31 2.31 96 1012.3
20260507033823 56 5 4.3 8.7 0.04 2.31 2.31 96 1012.3
20260507033711 56 360 4.3 8.7 0.04 2.31 2.31 96 1012.4
20260507033622 56 351 5.2 8.7 0.04 2.31 2.31 96 1012.4
20260507033553 56 344 5.2 12.2 0.04 2.31 2.31 96 1012.4
20260507033327 56 344 5.2 12.2 0.05 2.31 2.31 96 1012.7
20260507033214 57 327 5.2 12.2 0.05 2.31 2.31 96 1012.8
20260507033122 57 5 5.2 12.2 0.05 2.31 2.31 96 1012.8
20260507033012 57 329 4.3 12.2 0.07 2.31 2.31 96 1012.9
20260507032919 57 346 5.2 12.2 0.08 2.31 2.31 96 1012.9
20260507032826 57 355 6.1 12.2 0.08 2.31 2.31 96 1012.9
20260507032713 57 360 7.0 12.2 0.08 2.31 2.31 96 1012.8
20260507032640 57 349 7.8 12.2 0.08 2.31 2.31 96 1012.8
20260507032527 57 340 6.1 11.3 0.08 2.31 2.31 96 1012.8
20260507032418 57 338 6.1 9.6 0.08 2.31 2.31 96 1012.6
20260507032345 57 360 6.1 11.3 0.08 2.31 2.31 96 1012.6
20260507032212 57 340 6.1 11.3 0.08 2.31 2.31 96 1012.2
20260507032119 57 340 6.1 11.3 0.08 2.31 2.31 96 1012.3
20260507032050 57 346 6.1 11.3 0.07 2.30 2.30 96 1012.3
20260507031828 57 339 5.2 11.3 0.07 2.30 2.30 96 1012.2
20260507031716 57 350 4.3 12.2 0.07 2.30 2.30 96 1012.2
20260507031622 57 355 6.1 12.2 0.07 2.30 2.30 96 1012.2
20260507031510 57 20 7.8 12.2 0.07 2.30 2.30 96 1012.0
20260507031419 57 20 7.8 12.2 0.07 2.30 2.30 96 1012.1
20260507031310 57 5 7.0 12.2 0.06 2.29 2.29 96 1012.0
20260507031218 57 345 7.0 12.2 0.06 2.29 2.29 96 1011.9
20260507031146 57 18 7.0 12.2 0.05 2.28 2.28 96 1011.9
20260507031033 57 13 7.8 12.2 0.05 2.28 2.28 96 1012.0
20260507030920 57 355 7.0 12.2 0.05 2.28 2.28 96 1012.3
20260507030828 57 19 7.0 10.4 0.04 2.27 2.27 96 1012.3
20260507030719 57 12 7.0 10.4 0.04 2.27 2.27 96 1012.3
20260507030626 57 38 7.0 10.4 0.04 2.27 2.27 96 1012.3
20260507030557 57 355 7.0 10.4 0.04 2.27 2.27 96 1012.3
20260507030311 57 20 7.0 10.4 0.04 2.27 2.27 96 1012.3
20260507030219 57 17 6.1 9.6 0.04 2.27 2.27 96 1012.3
20260507030130 57 323 5.2 10.4 0.04 2.27 2.27 96 1012.3
20260507030018 57 355 5.2 10.4 0.04 2.27 2.27 96 1012.2
20260507025946 57 41 5.2 10.4 0.04 2.27 2.27 96 1012.2
20260507025812 57 21 6.1 10.4 0.04 2.27 2.27 96 1012.0
20260507025718 57 355 6.1 10.4 0.04 2.27 2.27 96 1012.0
20260507025626 57 360 7.0 10.4 0.04 2.27 2.27 96 1012.0
20260507025517 57 12 7.0 10.4 0.04 2.27 2.27 96 1012.1
20260507025424 57 360 7.8 10.4 0.04 2.27 2.27 96 1012.1
20260507025311 57 338 7.8 10.4 0.04 2.27 2.27 96 1012.3
20260507025237 57 323 6.1 10.4 0.04 2.27 2.27 96 1012.3
20260507025124 57 5 6.1 9.6 0.04 2.27 2.27 96 1012.3
20260507025058 57 339 5.2 9.6 0.04 2.27 2.27 96 1012.4
20260507024811 57 336 5.2 9.6 0.04 2.27 2.27 96 1012.2
20260507024718 57 347 6.1 9.6 0.04 2.27 2.27 96 1012.2
20260507024626 57 5 6.1 9.6 0.04 2.27 2.27 96 1012.2
20260507024513 57 22 7.0 9.6 0.04 2.27 2.27 96 1012.1
20260507024444 57 19 7.0 9.6 0.04 2.27 2.27 96 1012.1
20260507024311 57 348 6.1 9.6 0.04 2.27 2.27 96 1012.2
20260507024220 57 350 5.2 9.6 0.04 2.27 2.27 96 1012.2
20260507024127 57 19 4.3 9.6 0.04 2.27 2.27 96 1012.2
20260507024015 57 348 4.3 9.6 0.04 2.27 2.27 96 1012.2
20260507023922 57 17 5.2 9.6 0.04 2.27 2.27 96 1012.2
20260507023815 57 5 6.1 9.6 0.04 2.27 2.27 96 1012.3
20260507023723 57 12 6.1 9.6 0.04 2.27 2.27 96 1012.3
20260507023630 58 350 5.2 9.6 0.04 2.27 2.27 96 1012.2
20260507023600 58 334 4.3 9.6 0.04 2.27 2.27 96 1012.3
20260507023318 58 323 3.5 8.7 0.03 2.26 2.26 96 1012.1
20260507023226 58 341 3.5 8.7 0.03 2.26 2.26 96 1012.1
20260507023113 58 355 3.5 8.7 0.03 2.26 2.26 96 1012.1
20260507023022 58 348 4.3 8.7 0.01 2.24 2.24 96 1012.1
20260507022929 58 334 4.3 8.7 0.00 2.23 2.23 96 1012.0
20260507022820 58 341 4.3 8.7 0.00 2.23 2.23 96 1012.1
20260507022747 58 348 5.2 8.7 0.00 2.23 2.23 96 1012.1
20260507022613 58 332 7.0 8.7 0.00 2.23 2.23 96 1012.3
20260507022541 58 339 7.0 8.7 0.00 2.23 2.23 96 1012.1
20260507022426 58 325 6.1 8.7 0.00 2.23 2.23 96 1012.1
20260507022311 58 334 5.2 7.8 0.00 2.23 2.23 96 1012.0
20260507022219 58 321 4.3 7.8 0.00 2.23 2.23 96 1012.1
20260507022132 58 348 4.3 7.0 0.00 2.23 2.23 96 1012.1
20260507022102 58 346 3.5 7.0 0.00 2.23 2.23 96 1012.0
20260507021815 58 355 2.6 7.0 0.00 2.23 2.23 96 1012.1
20260507021723 58 360 1.7 7.0 0.00 2.23 2.23 96 1012.1
20260507021615 58 15 1.7 7.0 0.00 2.23 2.23 96 1012.1
20260507021523 58 5 1.7 7.0 0.00 2.23 2.23 96 1012.1
20260507021412 58 18 2.6 7.0 0.00 2.23 2.23 96 1012.1
20260507021320 58 30 3.5 7.0 0.00 2.23 2.23 96 1012.0
20260507021226 58 9 2.6 7.0 0.00 2.23 2.23 96 1012.0
20260507021118 58 360 1.7 5.2 0.00 2.23 2.23 96 1011.9
20260507021026 58 26 1.7 5.2 0.00 2.23 2.23 96 1011.9
20260507020914 58 28 2.6 7.8 0.00 2.23 2.23 96 1011.8
20260507020822 58 21 3.5 7.8 0.00 2.23 2.23 96 1011.8
20260507020730 58 81 3.5 7.8 0.00 2.23 2.23 96 1011.7
20260507020638 58 43 2.6 7.8 0.00 2.23 2.23 96 1011.8
20260507020551 58 46 2.6 7.8 0.00 2.23 2.23 96 1011.8
20260507020325 58 46 2.6 7.8 0.00 2.23 2.23 96 1011.9
20260507020212 58 37 4.3 7.8 0.00 2.23 2.23 96 1012.0
20260507020120 58 23 5.2 7.8 0.00 2.23 2.23 96 1012.1
20260507020011 58 21 4.3 7.8 0.00 2.23 2.23 96 1012.1
20260507015938 58 31 3.5 7.8 0.00 2.23 2.23 96 1012.1
20260507015844 58 347 4.3 7.8 0.00 2.23 2.23 96 1012.1
20260507015750 58 355 4.3 7.0 0.00 2.23 2.23 96 1012.1
20260507015616 58 35 4.3 6.1 0.00 2.23 2.23 96 1012.1
20260507015524 58 342 4.3 7.0 0.00 2.23 2.23 96 1012.1
20260507015432 58 336 5.2 7.0 0.00 2.23 2.23 96 1012.0
20260507015317 58 348 4.3 7.0 0.00 2.23 2.23 96 1011.9
20260507015228 58 355 3.5 7.0 0.00 2.23 2.23 96 1011.9
20260507015114 58 20 4.3 8.7 0.00 2.23 2.23 96 1011.9
20260507015046 58 49 4.3 8.7 0.00 2.23 2.23 96 1011.9
20260507014820 58 21 3.5 8.7 0.00 2.23 2.23 96 1011.7
20260507014711 58 21 3.5 8.7 0.00 2.23 2.23 96 1011.6
20260507014638 58 5 3.5 8.7 0.00 2.23 2.23 96 1011.4
20260507014526 58 15 4.3 8.7 0.00 2.23 2.23 96 1011.4
20260507014433 58 22 5.2 8.7 0.00 2.23 2.23 96 1011.6
20260507014319 58 24 5.2 8.7 0.00 2.23 2.23 96 1011.7
20260507014226 58 5 4.3 8.7 0.00 2.23 2.23 96 1011.7
20260507014132 58 5 2.6 8.7 0.00 2.23 2.23 96 1011.8
20260507014043 58 11 2.6 8.7 0.00 2.23 2.23 96 1011.8
20260507013930 58 339 4.3 8.7 0.00 2.23 2.23 96 1011.7
20260507013818 58 27 4.3 8.7 0.00 2.23 2.23 96 1011.7
20260507013725 58 29 4.3 8.7 0.00 2.23 2.23 96 1011.7
20260507013634 59 5 3.5 8.7 0.00 2.23 2.23 96 1011.6
20260507013547 59 20 4.3 8.7 0.00 2.23 2.23 96 1011.6
20260507013322 59 355 4.3 8.7 0.00 2.23 2.23 96 1011.6
20260507013229 59 34 4.3 8.7 0.00 2.23 2.23 96 1011.6
20260507013117 59 5 3.5 7.0 0.00 2.23 2.23 96 1011.5
20260507013024 59 32 2.6 7.0 0.00 2.23 2.23 96 1011.5
20260507012915 59 48 2.6 7.0 0.00 2.23 2.23 96 1011.6
20260507012824 59 10 2.6 7.0 0.00 2.23 2.23 96 1011.6
20260507012711 58 19 3.5 7.0 0.00 2.23 2.23 96 1011.6
20260507012617 59 26 3.5 7.0 0.00 2.23 2.23 96 1011.5
20260507012524 59 28 3.5 7.0 0.00 2.23 2.23 96 1011.5
20260507012413 59 32 4.3 7.0 0.00 2.23 2.23 96 1011.4
20260507012323 59 40 5.2 7.0 0.00 2.23 2.23 96 1011.4
20260507012210 59 33 4.3 7.0 0.00 2.23 2.23 96 1011.5
20260507012119 58 23 4.3 7.0 0.00 2.23 2.23 96 1011.6
20260507012049 58 35 3.5 5.2 0.00 2.23 2.23 96 1011.6
20260507011828 58 35 2.6 5.2 0.00 2.23 2.23 96 1011.7
20260507011715 58 46 2.6 5.2 0.00 2.23 2.23 96 1011.9
20260507011624 58 346 3.5 5.2 0.00 2.23 2.23 96 1011.9
20260507011512 58 355 2.6 5.2 0.00 2.23 2.23 96 1011.8
20260507011440 58 19 1.7 5.2 0.00 2.23 2.23 96 1011.8
20260507011326 58 355 2.6 5.2 0.00 2.23 2.23 96 1011.8
20260507011219 58 355 2.6 5.2 0.00 2.23 2.23 96 1011.7
20260507011126 58 46 2.6 5.2 0.00 2.23 2.23 96 1011.7
20260507011034 59 44 3.5 6.1 0.00 2.23 2.23 96 1011.5
20260507010920 59 13 2.6 6.1 0.00 2.23 2.23 96 1011.6
20260507010828 59 355 3.5 6.1 0.00 2.23 2.23 96 1011.6
20260507010715 59 30 3.5 6.1 0.00 2.23 2.23 96 1011.5
20260507010627 59 54 3.5 7.8 0.00 2.23 2.23 96 1011.5
20260507010558 59 30 2.6 7.8 0.00 2.23 2.23 96 1011.5
20260507010312 59 17 3.5 7.8 0.00 2.23 2.23 96 1011.4
20260507010220 59 40 3.5 7.8 0.00 2.23 2.23 96 1011.3
20260507010111 59 360 3.5 7.8 0.00 2.23 2.23 96 1011.3
20260507010038 59 5 4.3 7.8 0.00 2.23 2.23 96 1011.4
20260507005943 59 5 4.3 7.8 0.00 2.23 2.23 96 1011.4
20260507005829 59 11 4.3 7.8 0.00 2.23 2.23 96 1011.4
20260507005717 59 17 3.5 7.0 0.00 2.23 2.23 96 1011.9
20260507005624 59 5 3.5 5.2 0.00 2.23 2.23 96 1011.9
20260507005515 59 9 3.5 5.2 0.00 2.23 2.23 96 1012.2
20260507005422 59 11 3.5 4.3 0.00 2.23 2.23 96 1012.2
20260507005330 59 339 3.5 4.3 0.00 2.23 2.23 96 1012.3
20260507005238 59 17 2.6 4.3 0.00 2.23 2.23 96 1012.2
20260507005144 59 333 1.7 4.3 0.00 2.23 2.23 96 1012.2
20260507005052 59 355 2.6 4.3 0.00 2.23 2.23 96 1012.2
20260507004850 59 32 2.6 4.3 0.00 2.23 2.23 96 1012.2
20260507004718 59 5 2.6 4.3 0.00 2.23 2.23 96 1012.2
20260507004625 59 19 2.6 4.3 0.00 2.23 2.23 96 1012.2
20260507004511 59 351 2.6 4.3 0.00 2.23 2.23 96 1012.3
20260507004419 59 21 1.7 4.3 0.00 2.23 2.23 96 1012.3
20260507004311 59 18 2.6 4.3 0.00 2.23 2.23 96 1012.2
20260507004218 59 12 2.6 4.3 0.00 2.23 2.23 96 1012.2
20260507004125 59 350 2.6 5.2 0.00 2.23 2.23 96 1012.2
20260507004012 59 17 2.6 6.1 0.00 2.23 2.23 96 1012.3
20260507003941 59 34 1.7 8.7 0.00 2.23 2.23 96 1012.3
20260507003827 59 32 1.7 8.7 0.00 2.23 2.23 96 1012.3
20260507003720 59 95 1.7 8.7 0.00 2.23 2.23 96 1012.2
20260507003626 59 85 1.7 8.7 0.00 2.23 2.23 96 1012.2
20260507003555 59 98 1.7 8.7 0.00 2.23 2.23 95 1012.3
20260507003330 59 69 3.5 8.7 0.00 2.23 2.23 95 1012.3
20260507003219 59 57 4.3 8.7 0.00 2.23 2.23 96 1012.3
20260507003129 59 67 4.3 8.7 0.00 2.23 2.23 96 1012.3
20260507003018 59 38 2.6 7.8 0.00 2.23 2.23 96 1012.2
20260507002925 59 36 4.3 7.8 0.00 2.23 2.23 96 1012.2
20260507002812 59 27 4.3 7.8 0.00 2.23 2.23 95 1012.2
20260507002740 59 10 3.5 8.7 0.00 2.23 2.23 95 1012.2
20260507002610 59 5 3.5 8.7 0.00 2.23 2.23 95 1012.2
20260507002537 59 360 4.3 9.6 0.00 2.23 2.23 95 1012.1
20260507002423 59 26 5.2 9.6 0.00 2.23 2.23 95 1012.1
20260507002311 59 22 5.2 9.6 0.00 2.23 2.23 95 1011.9
20260507002239 59 355 5.2 9.6 0.01 2.23 2.23 95 1012.0
20260507002125 59 5 5.2 9.6 0.01 2.23 2.23 95 1012.0
20260507002100 59 17 6.1 9.6 0.01 2.23 2.23 95 1011.9
20260507001813 59 33 5.2 9.6 0.01 2.23 2.23 95 1012.0
20260507001721 59 5 4.3 9.6 0.01 2.23 2.23 95 1012.0
20260507001629 59 360 4.3 9.6 0.01 2.23 2.23 95 1012.0
20260507001517 59 32 5.2 9.6 0.01 2.23 2.23 95 1012.1
20260507001429 59 34 5.2 9.6 0.01 2.23 2.23 95 1012.1
20260507001316 59 46 5.2 10.4 0.01 2.23 2.23 95 1012.2
20260507001245 60 355 4.3 10.4 0.01 2.23 2.23 95 1012.2
20260507001130 60 16 5.2 10.4 0.01 2.23 2.23 95 1012.2
20260507001038 60 12 7.0 10.4 0.01 2.23 2.23 95 1012.0
20260507000923 60 37 7.0 10.4 0.01 2.23 2.23 95 1012.0
20260507000832 60 12 6.1 10.4 0.01 2.23 2.23 95 1011.9
20260507000722 60 27 6.1 10.4 0.01 2.23 2.23 95 1011.9
20260507000649 60 355 6.1 10.4 0.01 2.23 2.23 95 1011.9
20260507000559 60 5 6.1 10.4 0.01 2.23 2.23 95 1011.9
20260507000314 60 37 6.1 9.6 0.01 2.23 2.23 96 1011.8
20260507000220 60 355 5.2 9.6 0.01 2.23 2.23 96 1011.9
20260507000130 60 30 6.1 9.6 0.01 2.23 2.23 96 1011.9
20260507000037 60 360 6.1 9.6 0.01 2.23 2.23 96 1012.0
20260506235923 60 34 6.1 9.6 0.01 2.23 2.23 96 1012.0
20260506235850 60 15 5.2 10.4 0.01 2.23 2.23 96 1012.0
20260506235717 60 11 5.2 11.3 0.01 2.23 2.23 96 1012.1
20260506235624 60 355 5.2 11.3 0.01 2.23 2.23 96 1012.1
20260506235516 61 340 5.2 12.2 0.01 2.23 2.23 96 1012.0
20260506235423 61 355 5.2 12.2 0.01 2.23 2.23 96 1012.0
20260506235311 61 355 5.2 12.2 0.01 2.23 2.23 95 1011.6
20260506235240 61 355 7.0 12.2 0.01 2.23 2.23 95 1011.7
20260506235127 61 13 7.8 12.2 0.01 2.23 2.23 95 1011.7
20260506235101 61 339 8.7 12.2 0.01 2.23 2.23 95 1011.7
20260506234813 61 323 7.8 12.2 0.03 2.23 2.23 96 1012.2
20260506234720 61 355 6.1 12.2 0.03 2.23 2.23 96 1012.2
20260506234627 61 350 5.2 11.3 0.04 2.23 2.23 96 1012.2
20260506234515 61 312 4.3 11.3 0.06 2.23 2.23 96 1012.1
20260506234423 61 320 6.1 11.3 0.06 2.23 2.23 96 1012.1
20260506234314 61 351 7.0 11.3 0.08 2.23 2.23 96 1012.3
20260506234221 61 342 7.0 11.3 0.08 2.23 2.23 96 1012.3
20260506234129 61 329 7.0 11.3 0.08 2.23 2.23 96 1012.3
20260506234016 61 349 6.1 9.6 0.08 2.23 2.23 96 1011.9
20260506233923 61 9 6.1 9.6 0.08 2.23 2.23 96 1011.9
20260506233815 61 17 7.0 9.6 0.09 2.23 2.23 96 1012.0
20260506233721 61 360 6.1 9.6 0.09 2.23 2.23 95 1012.0
20260506233628 61 355 5.2 9.6 0.09 2.23 2.23 95 1012.1
20260506233559 61 313 5.2 7.8 0.10 2.23 2.23 95 1012.2
20260506233313 61 323 4.3 7.8 0.12 2.23 2.23 96 1012.3
20260506233224 61 360 4.3 7.8 0.12 2.23 2.23 95 1012.3
20260506233111 62 5 4.3 7.8 0.15 2.23 2.23 95 1012.3
20260506233039 62 318 4.3 7.8 0.15 2.23 2.23 96 1012.3
20260506232924 62 317 5.2 7.8 0.15 2.23 2.23 95 1012.3
20260506232811 62 317 5.2 7.8 0.15 2.23 2.23 95 1012.1
20260506232739 62 317 4.3 7.8 0.15 2.23 2.23 96 1011.9
20260506232629 62 327 3.5 8.7 0.15 2.23 2.23 96 1011.9
20260506232536 62 329 3.5 8.7 0.15 2.23 2.23 95 1011.7
20260506232423 62 333 4.3 8.7 0.15 2.23 2.23 95 1011.7
20260506232310 62 325 4.3 8.7 0.16 2.23 2.23 95 1011.3
20260506232216 62 351 5.2 8.7 0.15 2.22 2.22 95 1011.3
20260506232124 62 346 4.3 8.7 0.15 2.22 2.22 95 1011.3
20260506232058 62 5 4.3 10.4 0.15 2.22 2.22 95 1011.3
20260506231812 62 350 4.3 11.3 0.15 2.22 2.22 95 1011.4
20260506231720 62 346 5.2 11.3 0.15 2.22 2.22 95 1011.4
20260506231627 62 5 4.3 11.3 0.15 2.22 2.22 95 1011.4
20260506231518 63 31 4.3 11.3 0.15 2.22 2.22 95 1011.4
20260506231425 63 343 4.3 11.3 0.15 2.22 2.22 95 1011.4
20260506231333 63 19 6.1 11.3 0.15 2.22 2.22 95 1011.4
20260506231220 63 9 7.0 11.3 0.15 2.22 2.22 95 1011.6
20260506231127 63 22 7.8 13.9 0.15 2.22 2.22 95 1011.6
20260506231014 63 41 8.7 13.9 0.15 2.22 2.22 95 1011.6
20260506230926 63 17 7.8 13.9 0.15 2.22 2.22 95 1011.6
20260506230813 64 36 6.1 13.9 0.15 2.22 2.22 95 1011.7
20260506230720 64 29 5.2 13.9 0.15 2.22 2.22 96 1011.8
20260506230649 64 22 7.0 13.9 0.15 2.22 2.22 96 1011.8
20260506230559 64 19 7.8 13.9 0.15 2.22 2.22 96 1011.8
20260506230316 64 5 7.0 13.9 0.15 2.22 2.22 96 1012.0
20260506230243 64 323 5.2 10.4 0.15 2.22 2.22 96 1012.0
20260506230110 64 338 6.1 10.4 0.15 2.22 2.22 96 1012.0
20260506230018 64 344 7.8 10.4 0.15 2.22 2.22 96 1012.0
20260506225926 64 332 7.8 10.4 0.15 2.22 2.22 96 1012.0
20260506225834 64 345 7.0 11.3 0.15 2.22 2.22 96 1011.8
20260506225724 64 346 6.1 12.2 0.15 2.22 2.22 96 1011.8
20260506225612 64 338 7.0 12.2 0.15 2.22 2.22 96 1011.9
20260506225519 65 342 7.0 12.2 0.15 2.22 2.22 96 1011.8
20260506225427 65 342 7.0 12.2 0.15 2.22 2.22 96 1011.8
20260506225313 65 355 7.0 12.2 0.15 2.22 2.22 96 1011.6
20260506225221 65 320 7.8 12.2 0.15 2.22 2.22 96 1011.7
20260506225133 65 355 8.7 12.2 0.15 2.22 2.22 96 1011.7
20260506225103 65 321 8.7 12.2 0.14 2.21 2.21 96 1011.6
20260506224817 65 345 7.8 11.3 0.13 2.20 2.20 96 1011.5
20260506224725 65 360 7.0 10.4 0.12 2.19 2.19 96 1011.5
20260506224616 65 331 7.0 9.6 0.10 2.17 2.17 96 1011.4
20260506224523 65 338 7.0 9.6 0.10 2.17 2.17 96 1011.4
20260506224411 65 321 6.1 9.6 0.09 2.16 2.16 96 1011.4
20260506224320 65 355 6.1 9.6 0.08 2.15 2.15 96 1011.5
20260506224227 66 335 5.2 9.6 0.08 2.15 2.15 96 1011.5
20260506224118 65 326 5.2 7.8 0.09 2.15 2.15 96 1011.4
20260506224026 66 324 4.3 7.8 0.09 2.15 2.15 96 1011.4
20260506223913 66 332 4.3 7.8 0.09 2.14 2.14 96 1011.3
20260506223820 66 313 4.3 7.8 0.09 2.14 2.14 96 1011.4
20260506223728 66 337 4.3 8.7 0.10 2.14 2.14 96 1011.4
20260506223615 66 317 4.3 8.7 0.10 2.13 2.13 96 1011.4
20260506223549 66 309 4.3 10.4 0.09 2.12 2.12 96 1011.4
20260506223323 66 336 4.3 10.4 0.09 2.11 2.11 96 1011.5
20260506223210 66 335 4.3 10.4 0.07 2.09 2.09 96 1011.5
20260506223138 66 332 3.5 10.4 0.06 2.08 2.08 96 1011.4
20260506223025 66 325 4.3 10.4 0.06 2.08 2.08 96 1011.4
20260506222936 66 348 6.1 10.4 0.07 2.08 2.08 97 1011.4
20260506222823 66 309 5.2 10.4 0.07 2.08 2.08 97 1011.4
20260506222710 66 328 5.2 10.4 0.07 2.08 2.08 97 1011.3
20260506222638 66 309 5.2 8.7 0.07 2.08 2.08 97 1011.5
20260506222544 66 303 6.1 8.7 0.07 2.08 2.08 97 1011.5
20260506222411 66 338 4.3 8.7 0.06 2.07 2.07 97 1011.4
20260506222322 66 316 3.5 8.7 0.06 2.07 2.07 97 1011.4
20260506222228 66 342 2.6 7.8 0.06 2.07 2.07 97 1011.3
20260506222136 66 328 2.6 7.8 0.06 2.07 2.07 97 1011.3
20260506222045 66 317 2.6 7.8 0.06 2.07 2.07 97 1011.3
20260506221820 66 302 3.5 7.8 0.06 2.07 2.07 97 1011.2
20260506221711 66 309 4.3 7.8 0.06 2.07 2.07 97 1011.3
20260506221619 66 323 3.5 7.8 0.06 2.07 2.07 97 1011.3
20260506221527 66 321 3.5 7.0 0.06 2.07 2.07 97 1011.3
20260506221415 66 325 2.6 5.2 0.07 2.07 2.07 97 1011.2
20260506221322 66 315 2.6 3.5 0.07 2.07 2.07 97 1011.2
20260506221250 66 323 2.6 3.5 0.07 2.07 2.07 97 1011.2
20260506221121 66 319 2.6 3.5 0.07 2.07 2.07 97 1011.1
20260506221028 66 325 2.6 3.5 0.07 2.07 2.07 97 1011.0
20260506220915 66 355 2.6 3.5 0.09 2.07 2.07 97 1011.2
20260506220823 66 341 1.7 3.5 0.09 2.07 2.07 97 1011.2
20260506220710 66 319 1.7 2.6 0.09 2.07 2.07 97 1011.2
20260506220639 66 323 0.9 2.6 0.09 2.07 2.07 97 1011.2
20260506220554 66 329 0.9 2.6 0.09 2.07 2.07 97 1011.2
20260506220328 66 301 0.0 2.6 0.10 2.07 2.07 97 1011.2
20260506220216 66 317 0.0 0.0 0.15 2.07 2.07 97 1011.1
20260506220144 66 360 0.0 0.0 0.15 2.07 2.07 97 1011.1
20260506220011 66 360 0.0 0.0 0.16 2.07 2.07 97 1011.2
20260506215922 66 360 0.0 0.0 0.16 2.07 2.07 97 1011.2
20260506215810 66 360 0.0 0.0 0.19 2.07 2.07 97 1011.1
20260506215718 66 360 0.0 0.0 0.23 2.07 2.07 97 1011.1
20260506215624 66 360 0.0 0.0 0.23 2.07 2.07 97 1011.1
20260506215512 66 360 0.0 0.0 0.24 2.07 2.07 97 1011.1
20260506215422 66 360 0.0 0.0 0.24 2.07 2.07 97 1011.1
20260506215329 66 360 0.0 0.0 0.25 2.07 2.07 97 1010.9
20260506215217 66 360 0.0 0.0 0.25 2.07 2.07 97 1010.7
20260506215124 66 360 0.0 2.6 0.25 2.07 2.07 97 1010.7
20260506215054 66 360 0.0 2.6 0.25 2.07 2.07 97 1010.7
20260506214811 66 360 0.0 2.6 0.25 2.07 2.07 97 1010.8
20260506214718 66 360 0.0 2.6 0.26 2.07 2.07 97 1010.7
20260506214624 66 360 0.0 2.6 0.26 2.07 2.07 97 1010.7
20260506214531 66 360 0.0 2.6 0.26 2.07 2.07 97 1010.5
20260506214418 66 360 0.0 2.6 0.27 2.07 2.07 97 1010.5
20260506214326 66 360 0.9 2.6 0.27 2.07 2.07 97 1010.5
20260506214217 66 360 0.9 1.7 0.27 2.07 2.07 97 1010.4
20260506214124 66 360 0.9 1.7 0.26 2.06 2.06 97 1010.4
20260506214011 66 360 0.9 1.7 0.25 2.05 2.05 97 1010.5
20260506213920 66 360 0.0 2.6 0.26 2.05 2.05 97 1010.6
20260506213828 66 360 0.0 2.6 0.25 2.04 2.04 97 1010.6
20260506213718 66 360 0.0 2.6 0.28 2.03 2.03 96 1010.6
20260506213556 66 360 0.0 2.6 0.28 2.03 2.03 97 1010.6
20260506213328 66 360 0.0 2.6 0.27 2.02 2.02 97 1010.7
20260506213217 66 360 0.9 2.6 0.27 2.02 2.02 97 1010.8
20260506213150 66 360 0.9 2.6 0.27 2.02 2.02 97 1010.8
20260506213017 66 360 1.7 2.6 0.27 2.01 2.01 96 1010.8
20260506212925 66 360 0.9 2.6 0.27 2.01 2.01 97 1010.8
20260506212831 66 360 0.9 2.6 0.27 2.01 2.01 97 1010.8
20260506212717 66 360 0.9 2.6 0.28 2.01 2.01 97 1010.7
20260506212624 66 360 0.9 2.6 0.28 2.01 2.01 97 1010.7
20260506212530 66 360 0.9 2.6 0.29 2.01 2.01 97 1010.6
20260506212420 66 360 1.7 2.6 0.30 2.01 2.01 97 1010.5
20260506212329 66 360 1.7 2.6 0.31 2.01 2.01 97 1010.5
20260506212216 66 20 1.7 2.6 0.33 2.01 2.01 97 1010.4
20260506212123 65 355 1.7 2.6 0.33 2.01 2.01 97 1010.4
20260506212057 65 355 1.7 2.6 0.39 2.01 2.01 97 1010.5
20260506211811 65 360 1.7 2.6 0.45 2.01 2.01 97 1010.4
20260506211719 65 336 0.9 2.6 0.46 2.01 2.01 97 1010.4
20260506211627 65 336 0.9 2.6 0.46 2.01 2.01 97 1010.4
20260506211514 65 336 1.7 2.6 0.52 2.00 2.00 97 1010.5
20260506211421 65 355 1.7 2.6 0.52 2.00 2.00 97 1010.5
20260506211313 65 355 1.7 2.6 0.55 2.00 2.00 97 1010.5
20260506211221 65 355 1.7 2.6 0.55 2.00 2.00 97 1010.5
20260506211129 65 355 0.9 1.7 0.55 2.00 2.00 97 1010.5
20260506211037 65 355 0.9 1.7 0.55 1.99 1.99 96 1010.4
20260506210923 65 40 0.9 1.7 0.54 1.98 1.98 96 1010.4
20260506210815 65 40 0.9 1.7 0.54 1.98 1.98 97 1010.4
20260506210721 65 40 0.9 2.6 0.54 1.98 1.98 97 1010.4
20260506210629 65 40 0.0 2.6 0.55 1.98 1.98 97 1010.4
20260506210559 65 40 0.0 2.6 0.55 1.97 1.97 97 1010.3
20260506210312 65 219 0.0 2.6 0.52 1.94 1.94 97 1010.9
20260506210239 65 219 0.9 2.6 0.50 1.92 1.92 97 1010.9
20260506210130 65 219 0.9 2.6 0.50 1.92 1.92 97 1010.9
20260506210017 65 274 0.9 2.6 0.49 1.91 1.91 97 1010.8
20260506205925 65 257 0.9 2.6 0.47 1.89 1.89 97 1010.8
20260506205813 65 263 0.9 2.6 0.44 1.86 1.86 97 1010.7
20260506205721 65 264 0.9 1.7 0.42 1.84 1.84 96 1010.7
20260506205613 65 42 0.0 1.7 0.42 1.84 1.84 96 1010.6
20260506205522 65 28 0.0 2.6 0.41 1.83 1.83 96 1010.6
20260506205428 65 24 0.0 2.6 0.41 1.82 1.82 96 1010.4
20260506205315 65 24 0.0 2.6 0.41 1.82 1.82 96 1010.4
20260506205242 65 24 0.0 2.6 0.41 1.82 1.82 96 1010.4
20260506205129 65 24 0.9 2.6 0.41 1.82 1.82 96 1010.3
20260506205103 65 24 0.9 2.6 0.41 1.82 1.82 96 1010.4
20260506204818 65 10 1.7 2.6 0.41 1.82 1.82 96 1010.2
20260506204725 65 11 0.9 2.6 0.40 1.81 1.81 96 1010.2
20260506204611 65 50 0.9 2.6 0.40 1.81 1.81 96 1010.2
20260506204524 65 50 0.0 2.6 0.40 1.81 1.81 96 1010.2
20260506204412 65 50 0.9 2.6 0.39 1.80 1.80 96 1010.2
20260506204320 65 50 0.9 2.6 0.39 1.80 1.80 96 1010.2
20260506204226 65 50 1.7 2.6 0.39 1.80 1.80 96 1010.2
20260506204115 65 50 0.9 2.6 0.39 1.80 1.80 96 1010.3
20260506204042 65 50 0.0 2.6 0.39 1.80 1.80 96 1010.3
20260506203931 65 50 0.0 2.6 0.38 1.79 1.79 96 1010.4
20260506203816 65 50 0.0 2.6 0.35 1.76 1.76 96 1010.3
20260506203725 65 50 0.9 3.5 0.34 1.75 1.75 96 1010.3
20260506203632 65 50 0.9 3.5 0.34 1.75 1.75 96 1010.4
20260506203602 65 50 0.9 3.5 0.34 1.75 1.75 96 1010.3
20260506203319 65 40 0.9 3.5 0.34 1.75 1.75 96 1010.3
20260506203247 65 55 0.9 3.5 0.34 1.75 1.75 96 1010.3
20260506203113 65 42 0.9 3.5 0.34 1.75 1.75 97 1010.5
20260506203021 65 34 0.9 3.5 0.33 1.74 1.74 96 1010.5
20260506202948 65 27 0.9 3.5 0.33 1.74 1.74 96 1010.4
20260506202814 65 36 1.7 3.5 0.33 1.74 1.74 96 1010.6
20260506202726 65 5 1.7 3.5 0.33 1.74 1.74 96 1010.6
20260506202635 65 5 2.6 3.5 0.32 1.72 1.72 96 1010.7
20260506202520 65 355 1.7 2.6 0.31 1.71 1.71 96 1010.7
20260506202427 65 5 1.7 2.6 0.30 1.70 1.70 96 1010.8
20260506202314 65 345 1.7 2.6 0.29 1.69 1.69 96 1010.9
20260506202222 65 10 1.7 2.6 0.28 1.68 1.68 96 1010.9
20260506202128 65 344 1.7 2.6 0.27 1.67 1.67 96 1011.0
20260506202103 65 327 1.7 2.6 0.22 1.62 1.62 96 1011.1
20260506201817 65 276 0.9 2.6 0.17 1.56 1.56 96 1011.3
20260506201724 65 277 0.0 3.5 0.16 1.55 1.55 96 1011.3
20260506201612 65 239 0.0 3.5 0.13 1.51 1.51 96 1011.2
20260506201524 65 186 0.0 3.5 0.10 1.48 1.48 96 1011.2
20260506201411 65 176 0.0 3.5 0.08 1.46 1.46 96 1011.3
20260506201317 65 115 0.0 3.5 0.07 1.45 1.45 96 1011.1
20260506201225 65 115 0.0 3.5 0.07 1.45 1.45 96 1011.1
20260506201132 65 115 0.9 3.5 0.06 1.44 1.44 96 1010.7
20260506201039 65 115 1.7 3.5 0.07 1.44 1.44 96 1010.6
20260506200929 65 113 1.7 3.5 0.07 1.44 1.44 96 1010.6
20260506200817 65 134 1.7 2.6 0.07 1.44 1.44 96 1010.5
20260506200724 65 94 0.9 2.6 0.06 1.43 1.43 96 1010.5
20260506200653 65 73 0.9 1.7 0.06 1.42 1.42 96 1010.6
20260506200602 65 49 0.0 1.7 0.06 1.42 1.42 96 1010.6
20260506200320 65 49 0.9 1.7 0.07 1.42 1.42 96 1010.8
20260506200247 65 49 0.9 2.6 0.07 1.42 1.42 96 1010.8
20260506200133 65 49 0.9 2.6 0.08 1.42 1.42 96 1011.0
20260506200020 65 49 0.9 2.6 0.08 1.42 1.42 96 1011.0
20260506195928 65 49 0.9 2.6 0.09 1.42 1.42 96 1011.0
20260506195835 65 12 0.9 2.6 0.09 1.42 1.42 96 1011.1
20260506195722 65 355 0.9 2.6 0.09 1.42 1.42 96 1011.1
20260506195614 65 355 0.9 2.6 0.09 1.42 1.42 96 1011.2
20260506195522 65 355 0.9 2.6 0.08 1.41 1.41 96 1011.2
20260506195430 65 355 0.9 2.6 0.08 1.41 1.41 96 1011.1
20260506195317 65 327 0.0 0.9 0.08 1.41 1.41 96 1011.2
20260506195225 65 327 0.0 1.7 0.08 1.41 1.41 96 1011.2
20260506195116 65 327 0.0 2.6 0.08 1.41 1.41 96 1011.2
20260506195045 65 327 0.0 2.6 0.08 1.41 1.41 96 1011.2
20260506194818 65 327 0.0 2.6 0.09 1.41 1.41 96 1011.2
20260506194725 65 327 0.0 2.6 0.09 1.41 1.41 96 1011.2
20260506194616 65 327 0.0 2.6 0.09 1.41 1.41 96 1011.2
20260506194523 65 327 0.9 2.6 0.09 1.41 1.41 96 1011.2
20260506194430 65 327 0.9 2.6 0.09 1.41 1.41 96 1011.2
20260506194317 65 323 0.9 2.6 0.09 1.41 1.41 96 1011.2
20260506194224 65 32 0.0 1.7 0.09 1.41 1.41 96 1011.2
20260506194111 64 32 0.0 0.9 0.09 1.41 1.41 96 1011.3
20260506194023 65 32 0.0 0.9 0.09 1.41 1.41 96 1011.3
20260506193910 64 32 0.0 0.9 0.09 1.41 1.41 96 1011.2
20260506193817 65 32 0.0 1.7 0.09 1.41 1.41 96 1011.3
20260506193726 64 32 0.0 1.7 0.09 1.41 1.41 96 1011.3
20260506193613 64 32 0.0 1.7 0.09 1.41 1.41 96 1011.2
20260506193548 64 43 0.0 1.7 0.09 1.41 1.41 96 1011.2
20260506193322 64 43 0.0 1.7 0.09 1.41 1.41 96 1011.4
20260506193228 64 43 0.0 1.7 0.09 1.41 1.41 96 1011.4
20260506193135 64 53 0.0 1.7 0.09 1.41 1.41 95 1011.4
20260506193022 64 53 0.0 1.7 0.09 1.41 1.41 95 1011.4
20260506192913 64 355 0.0 0.9 0.09 1.41 1.41 95 1011.6
20260506192820 64 355 0.0 0.9 0.09 1.41 1.41 95 1011.6
20260506192728 64 355 0.0 0.9 0.10 1.41 1.41 95 1011.7
20260506192615 64 355 0.0 2.6 0.09 1.40 1.40 95 1011.6
20260506192523 64 355 0.0 2.6 0.09 1.40 1.40 95 1011.6
20260506192414 64 355 0.0 2.6 0.09 1.40 1.40 95 1011.6
20260506192322 64 355 0.0 2.6 0.09 1.40 1.40 95 1011.6
20260506192228 64 355 0.0 2.6 0.09 1.40 1.40 96 1011.7
20260506192136 64 355 0.0 2.6 0.09 1.40 1.40 95 1011.7
20260506192106 64 355 0.0 7.0 0.08 1.39 1.39 95 1011.7
20260506191821 64 355 0.9 7.0 0.08 1.39 1.39 95 1011.8
20260506191730 64 355 1.7 7.0 0.07 1.38 1.38 95 1011.8
20260506191616 64 355 0.9 7.0 0.08 1.38 1.38 95 1011.9
20260506191524 64 304 0.9 7.0 0.08 1.38 1.38 95 1011.9
20260506191412 64 304 2.6 7.0 0.08 1.38 1.38 95 1011.9
20260506191319 64 295 3.5 7.0 0.10 1.38 1.38 95 1011.9
20260506191210 64 320 1.7 7.0 0.11 1.38 1.38 95 1011.9
20260506191118 64 275 0.9 5.2 0.12 1.38 1.38 95 1012.1
20260506191025 64 306 0.0 4.3 0.11 1.37 1.37 95 1012.1
20260506190911 64 5 0.0 4.3 0.14 1.37 1.37 95 1012.0
20260506190820 64 346 0.0 4.3 0.14 1.37 1.37 95 1012.0
20260506190712 64 346 0.9 4.3 0.15 1.36 1.36 95 1012.0
20260506190619 64 346 1.7 4.3 0.18 1.36 1.36 95 1012.1
20260506190548 64 346 2.6 4.3 0.17 1.35 1.35 95 1012.1
20260506190322 64 314 2.6 4.3 0.21 1.35 1.35 95 1012.0
20260506190214 64 336 2.6 4.3 0.20 1.34 1.34 95 1012.1
20260506190123 64 304 2.6 3.5 0.20 1.34 1.34 95 1012.1
20260506190050 64 355 2.6 3.5 0.19 1.33 1.33 95 1012.2
20260506185916 64 304 2.6 3.5 0.19 1.33 1.33 95 1012.3
20260506185824 64 329 1.7 2.6 0.19 1.33 1.33 95 1012.3
20260506185732 64 319 1.7 2.6 0.20 1.33 1.33 95 1012.3
20260506185618 64 321 0.9 2.6 0.20 1.33 1.33 95 1012.3
20260506185530 64 343 0.9 2.6 0.20 1.33 1.33 95 1012.3
20260506185416 64 330 0.0 2.6 0.20 1.33 1.33 95 1012.2
20260506185324 64 330 0.0 2.6 0.20 1.33 1.33 95 1012.2
20260506185212 64 257 0.9 2.6 0.20 1.33 1.33 95 1012.3
20260506185139 64 257 0.9 2.6 0.20 1.33 1.33 95 1012.3
20260506185113 64 257 0.9 2.6 0.19 1.32 1.32 95 1012.3
20260506184826 64 286 1.7 2.6 0.19 1.32 1.32 95 1012.3
20260506184714 64 238 1.7 2.6 0.19 1.32 1.32 95 1012.2
20260506184621 64 203 1.7 2.6 0.19 1.32 1.32 95 1012.2
20260506184528 64 217 1.7 2.6 0.19 1.32 1.32 95 1012.1
20260506184420 64 220 1.7 2.6 0.20 1.32 1.32 95 1012.0
20260506184327 64 222 0.9 2.6 0.20 1.32 1.32 95 1012.0
20260506184214 64 263 0.9 2.6 0.20 1.32 1.32 95 1012.0
20260506184121 64 284 0.0 2.6 0.20 1.32 1.32 95 1012.0
20260506184029 64 284 0.0 2.6 0.20 1.32 1.32 95 1012.0
20260506183920 64 284 0.0 2.6 0.20 1.32 1.32 95 1011.9
20260506183827 64 284 0.0 6.1 0.20 1.32 1.32 95 1011.9
20260506183715 64 294 0.9 6.1 0.21 1.32 1.32 95 1011.9
20260506183643 64 294 0.9 6.1 0.21 1.32 1.32 95 1011.9
20260506183613 64 294 1.7 6.1 0.21 1.32 1.32 95 1011.9
20260506183330 64 311 0.9 6.1 0.21 1.32 1.32 95 1012.0
20260506183216 64 320 1.7 6.1 0.23 1.32 1.32 95 1012.0
20260506183125 64 282 2.6 6.1 0.23 1.32 1.32 95 1012.0
20260506183032 64 286 2.6 6.1 0.24 1.32 1.32 95 1012.1
20260506182918 64 280 1.7 5.2 0.23 1.31 1.32 95 1012.1
20260506182825 64 249 1.7 5.2 0.23 1.31 1.31 95 1012.1
20260506182736 64 264 1.7 5.2 0.25 1.31 1.31 95 1012.2
20260506182623 64 282 1.7 5.2 0.25 1.31 1.31 95 1012.2
20260506182510 64 290 0.9 5.2 0.26 1.31 1.31 95 1012.3
20260506182418 64 301 1.7 5.2 0.28 1.31 1.31 95 1012.4
20260506182346 64 315 1.7 5.2 0.28 1.31 1.31 95 1012.4
20260506182211 64 311 2.6 6.1 0.31 1.31 1.31 95 1012.4
20260506182123 64 266 2.6 6.1 0.31 1.31 1.31 95 1012.4
20260506182055 64 263 2.6 8.7 0.32 1.31 1.31 95 1012.5
20260506181828 64 290 1.7 8.7 0.41 1.31 1.31 94 1012.2
20260506181735 64 233 1.7 8.7 0.54 1.31 1.31 94 1012.4
20260506181623 64 249 2.6 8.7 0.53 1.30 1.30 94 1012.4
20260506181514 64 312 2.6 8.7 0.59 1.30 1.30 94 1012.8
20260506181422 64 305 4.3 8.7 0.59 1.30 1.30 94 1012.8
20260506181310 64 300 5.2 10.4 0.58 1.28 1.28 94 1012.7
20260506181217 64 277 6.1 10.4 0.58 1.27 1.27 94 1012.8
20260506181124 64 279 4.3 10.4 0.57 1.26 1.26 94 1012.8
20260506181014 64 281 3.5 10.4 0.57 1.24 1.24 94 1012.7
20260506180941 64 244 3.5 10.4 0.56 1.23 1.23 94 1012.7
20260506180848 64 286 3.5 10.4 0.57 1.23 1.23 94 1012.8
20260506180715 64 343 4.3 10.4 0.58 1.21 1.21 94 1013.1
20260506180623 64 312 5.2 10.4 0.55 1.18 1.18 94 1013.1
20260506180554 64 234 5.2 8.7 0.52 1.15 1.15 94 1013.3
20260506180312 64 304 4.3 8.7 0.51 1.14 1.14 94 1013.4
20260506180219 64 298 3.5 7.8 0.51 1.14 1.14 94 1013.2
20260506180126 64 263 2.6 7.0 0.51 1.14 1.14 94 1013.2
20260506180013 64 252 2.6 7.0 0.51 1.14 1.14 93 1013.0
20260506175919 64 233 2.6 7.0 0.51 1.14 1.14 93 1013.0
20260506175810 64 202 2.6 7.0 0.50 1.13 1.13 93 1012.9
20260506175718 64 220 3.5 7.0 0.50 1.13 1.13 93 1012.9
20260506175625 64 213 3.5 7.0 0.50 1.13 1.13 93 1012.9
20260506175512 64 232 3.5 6.1 0.50 1.13 1.13 93 1012.8
20260506175439 64 207 3.5 7.0 0.50 1.13 1.13 93 1012.6
20260506175325 64 195 3.5 7.0 0.50 1.13 1.13 93 1012.6
20260506175218 64 218 2.6 7.0 0.50 1.13 1.13 93 1012.3
20260506175124 64 202 1.7 7.0 0.50 1.13 1.13 93 1012.3
20260506175055 64 215 2.6 7.0 0.50 1.13 1.13 93 1012.4
20260506174848 65 189 3.5 7.0 0.50 1.13 1.13 92 1012.2
20260506174714 65 210 3.5 7.0 0.50 1.13 1.13 92 1012.2
20260506174626 65 200 2.6 7.0 0.50 1.13 1.13 92 1012.2
20260506174512 65 214 3.5 7.8 0.50 1.13 1.13 92 1012.2
20260506174420 65 223 3.5 7.8 0.49 1.12 1.12 92 1012.2
20260506174328 65 198 3.5 7.8 0.49 1.12 1.12 92 1012.2
20260506174217 65 215 1.7 7.8 0.49 1.12 1.12 92 1012.2
20260506174123 65 200 1.7 7.8 0.49 1.12 1.12 92 1012.2
20260506174014 65 159 2.6 7.8 0.49 1.12 1.12 92 1012.2
20260506173922 65 204 2.6 7.8 0.49 1.12 1.12 91 1012.2
20260506173830 65 190 2.6 7.8 0.48 1.11 1.11 91 1012.4
20260506173718 66 219 2.6 7.8 0.48 1.11 1.11 91 1012.6
20260506173625 66 204 2.6 11.3 0.48 1.11 1.11 91 1012.6
20260506173559 66 199 1.7 11.3 0.48 1.11 1.11 91 1012.8
20260506173312 66 220 4.3 11.3 0.46 1.09 1.09 90 1013.2
20260506173240 66 207 5.2 11.3 0.46 1.09 1.09 90 1013.0
20260506173127 66 263 4.3 11.3 0.46 1.09 1.09 90 1013.0
20260506173014 67 312 3.5 11.3 0.45 1.08 1.08 89 1012.8
20260506172945 67 284 4.3 11.3 0.45 1.08 1.08 89 1012.8
20260506172811 67 308 6.1 11.3 0.44 1.07 1.07 89 1012.9
20260506172739 67 290 6.1 12.2 0.43 1.06 1.06 88 1012.9
20260506172626 67 303 5.2 14.8 0.42 1.05 1.05 89 1012.9
20260506172513 68 317 4.3 18.2 0.42 1.05 1.05 89 1013.0
20260506172440 68 355 4.3 18.2 0.40 1.03 1.03 90 1013.0
20260506172311 68 324 5.2 18.2 0.38 1.01 1.01 91 1013.2
20260506172219 69 302 7.8 18.2 0.37 1.00 1.00 90 1013.2
20260506172126 69 311 9.6 18.2 0.36 0.99 0.99 90 1013.2
20260506172055 69 338 11.3 18.2 0.29 0.92 0.92 90 1013.2
20260506171828 70 290 10.4 18.2 0.23 0.86 0.86 91 1013.5
20260506171721 70 305 7.8 18.2 0.14 0.77 0.77 91 1013.4
20260506171627 70 298 4.3 9.6 0.10 0.73 0.73 91 1013.4
20260506171516 70 280 3.5 7.8 0.08 0.71 0.71 91 1013.0
20260506171423 70 337 2.6 7.8 0.08 0.71 0.71 91 1013.0
20260506171329 70 294 1.7 7.8 0.07 0.70 0.70 91 1012.9
20260506171221 70 303 1.7 7.8 0.06 0.69 0.69 91 1012.8
20260506171129 70 292 1.7 8.7 0.05 0.68 0.68 91 1012.8
20260506171017 70 313 1.7 8.7 0.04 0.67 0.67 90 1012.6
20260506170944 70 253 0.9 8.7 0.03 0.66 0.66 91 1012.6
20260506170812 70 243 0.9 8.7 0.02 0.65 0.65 90 1012.4
20260506170720 70 211 0.9 8.7 0.00 0.63 0.63 90 1012.4
20260506170647 70 252 1.7 8.7 0.00 0.63 0.63 90 1012.4
20260506170601 70 215 2.6 8.7 0.00 0.63 0.63 90 1012.4
20260506170315 70 200 4.3 8.7 0.00 0.63 0.63 89 1012.5
20260506170243 70 210 3.5 8.7 0.00 0.63 0.63 89 1012.5
20260506170110 70 179 2.6 7.0 0.00 0.63 0.63 89 1012.3
20260506170020 70 194 3.5 7.8 0.00 0.63 0.63 89 1012.3
20260506165948 70 216 3.5 8.7 0.00 0.63 0.63 89 1012.3
20260506165834 70 201 4.3 9.6 0.00 0.63 0.63 89 1012.2
20260506165721 70 205 4.3 9.6 0.00 0.63 0.63 89 1012.2
20260506165627 70 219 4.3 9.6 0.00 0.63 0.63 89 1012.2
20260506165514 70 210 5.2 9.6 0.00 0.63 0.63 89 1012.2
20260506165442 70 223 5.2 14.8 0.00 0.63 0.63 89 1012.2
20260506165313 70 198 6.1 14.8 0.00 0.63 0.63 89 1012.1
20260506165221 70 192 6.1 14.8 0.00 0.63 0.63 89 1012.1
20260506165148 70 220 6.1 14.8 0.00 0.63 0.63 89 1012.2
20260506165119 70 165 5.2 14.8 0.00 0.63 0.63 89 1012.2
20260506164811 70 221 5.2 14.8 0.00 0.63 0.63 89 1012.3
20260506164722 70 184 7.0 14.8 0.00 0.63 0.63 89 1012.3
20260506164610 70 180 6.1 14.8 0.00 0.63 0.63 89 1012.2
20260506164518 70 206 6.1 13.0 0.00 0.63 0.63 89 1012.1
20260506164445 70 187 7.8 13.0 0.00 0.63 0.63 88 1012.1
20260506164312 70 194 7.8 13.0 0.00 0.63 0.63 88 1011.9
20260506164219 71 234 7.0 13.0 0.00 0.63 0.63 89 1011.9
20260506164129 71 202 5.2 13.0 0.00 0.63 0.63 88 1011.9
20260506164018 71 212 6.1 14.8 0.00 0.63 0.63 88 1011.9
20260506163925 71 215 6.1 14.8 0.00 0.63 0.63 88 1011.9
20260506163812 71 207 5.2 14.8 0.00 0.63 0.63 88 1011.9
20260506163720 71 188 6.1 14.8 0.00 0.63 0.63 88 1011.9
20260506163632 71 174 6.1 14.8 0.00 0.63 0.63 88 1011.9
20260506163602 71 171 7.8 14.8 0.00 0.63 0.63 88 1011.9
20260506163315 71 211 7.0 14.8 0.00 0.63 0.63 89 1011.9
20260506163224 71 183 6.1 14.8 0.00 0.63 0.63 89 1011.9
20260506163114 71 219 5.2 12.2 0.00 0.63 0.63 89 1011.8
20260506163023 71 238 5.2 12.2 0.00 0.63 0.63 88 1011.8
20260506162928 71 200 5.2 12.2 0.00 0.63 0.63 89 1011.8
20260506162815 71 197 7.8 13.9 0.00 0.63 0.63 88 1011.9
20260506162722 71 211 7.8 13.9 0.00 0.63 0.63 88 1011.9
20260506162630 71 192 7.8 13.9 0.00 0.63 0.63 89 1011.8
20260506162521 71 178 7.0 13.9 0.00 0.63 0.63 89 1011.7
20260506162430 71 205 6.1 13.9 0.00 0.63 0.63 89 1011.7
20260506162316 71 180 6.1 13.9 0.00 0.63 0.63 89 1011.6
20260506162244 70 174 7.0 13.9 0.00 0.63 0.63 89 1011.6
20260506162110 70 190 7.0 13.0 0.00 0.63 0.63 89 1011.6
20260506162044 70 196 7.8 13.0 0.00 0.63 0.63 89 1011.6
20260506161818 70 240 7.8 11.3 0.00 0.63 0.63 89 1011.7
20260506161726 70 212 7.8 12.2 0.00 0.63 0.63 89 1011.7
20260506161612 70 236 7.0 12.2 0.00 0.63 0.63 89 1011.7
20260506161521 70 201 7.0 13.0 0.00 0.63 0.63 89 1011.7
20260506161413 70 178 7.0 13.0 0.00 0.63 0.63 89 1011.6
20260506161319 70 187 7.0 13.9 0.00 0.63 0.63 89 1011.6
20260506161227 70 180 7.0 13.9 0.00 0.63 0.63 89 1011.6
20260506161135 70 231 5.2 13.9 0.00 0.63 0.63 89 1011.6
20260506161021 70 218 6.1 13.9 0.00 0.63 0.63 90 1011.6
20260506160928 70 194 6.1 13.9 0.00 0.63 0.63 90 1011.7
20260506160820 70 182 7.8 13.9 0.00 0.63 0.63 89 1011.8
20260506160728 70 198 8.7 13.9 0.00 0.63 0.63 89 1011.8
20260506160615 70 211 6.1 13.0 0.00 0.63 0.63 90 1011.8
20260506160545 70 172 5.2 13.0 0.00 0.63 0.63 90 1011.8
20260506160323 70 180 4.3 9.6 0.00 0.63 0.63 90 1011.8
20260506160230 70 181 5.2 14.8 0.00 0.63 0.63 90 1011.7
20260506160117 70 293 5.2 14.8 0.00 0.63 0.63 90 1011.6
20260506160025 70 217 6.1 14.8 0.00 0.63 0.63 90 1011.6
20260506155913 70 207 7.0 14.8 0.00 0.63 0.63 90 1011.6
20260506155841 70 184 5.2 14.8 0.00 0.63 0.63 91 1011.7
20260506155711 70 262 4.3 14.8 0.00 0.63 0.63 91 1011.7
20260506155617 70 207 4.3 14.8 0.00 0.63 0.63 90 1011.7
20260506155525 70 182 7.0 14.8 0.00 0.63 0.63 90 1011.7
20260506155412 70 184 7.8 14.8 0.00 0.63 0.63 90 1011.7
20260506155340 70 193 9.6 14.8 0.00 0.63 0.63 90 1011.8
20260506155227 70 163 8.7 14.8 0.00 0.63 0.63 90 1011.8
20260506155118 70 159 7.8 11.3 0.00 0.63 0.63 91 1011.9
20260506155049 70 175 7.0 10.4 0.00 0.63 0.63 91 1011.9
20260506154822 70 227 6.1 11.3 0.00 0.63 0.63 91 1011.7
20260506154730 70 210 6.1 10.4 0.00 0.63 0.63 91 1011.7
20260506154617 70 176 5.2 10.4 0.00 0.63 0.63 91 1011.7
20260506154529 70 215 5.2 10.4 0.00 0.63 0.63 91 1011.7
20260506154416 70 190 5.2 13.0 0.00 0.63 0.63 91 1011.7
20260506154321 70 173 6.1 13.0 0.00 0.63 0.63 92 1011.7
20260506154250 70 207 7.0 13.0 0.00 0.63 0.63 92 1011.7
20260506154115 70 176 6.1 13.0 0.00 0.63 0.63 92 1011.6
20260506154023 70 191 7.0 13.0 0.00 0.63 0.63 92 1011.6
20260506153915 69 176 7.0 13.0 0.00 0.63 0.63 92 1011.6
20260506153823 69 201 6.1 13.0 0.00 0.63 0.63 92 1011.6
20260506153711 69 219 7.0 13.0 0.00 0.63 0.63 92 1011.5
20260506153619 69 189 7.8 12.2 0.00 0.63 0.63 92 1011.6
20260506153554 69 202 8.7 12.2 0.00 0.63 0.63 92 1011.6
20260506153327 69 229 8.7 12.2 0.00 0.63 0.63 92 1011.7
20260506153213 69 214 7.0 13.0 0.00 0.63 0.63 92 1011.7
20260506153121 69 195 7.0 12.2 0.00 0.63 0.63 92 1011.7
20260506153028 69 231 7.0 11.3 0.00 0.63 0.63 92 1011.7
20260506152915 69 225 5.2 9.6 0.00 0.63 0.63 93 1011.7
20260506152847 69 194 5.2 9.6 0.00 0.63 0.63 93 1011.7
20260506152713 69 229 5.2 9.6 0.00 0.63 0.63 93 1011.7
20260506152621 69 178 6.1 9.6 0.00 0.63 0.63 93 1011.7
20260506152528 69 195 6.1 14.8 0.00 0.63 0.63 93 1011.7
20260506152415 69 194 7.0 14.8 0.00 0.63 0.63 93 1011.7
20260506152323 69 187 7.8 14.8 0.00 0.63 0.63 93 1011.7
20260506152214 69 200 6.1 14.8 0.00 0.63 0.63 94 1011.6
20260506152122 69 192 6.1 14.8 0.00 0.63 0.63 94 1011.6
20260506152052 69 144 7.0 14.8 0.00 0.63 0.63 94 1011.6
20260506151826 69 165 8.7 14.8 0.00 0.63 0.63 93 1011.6
20260506151718 69 196 9.6 15.6 0.00 0.63 0.63 93 1011.6
20260506151646 69 178 7.0 14.8 0.00 0.63 0.63 94 1011.6
20260506151512 69 192 7.8 14.8 0.00 0.63 0.63 94 1011.4
20260506151418 69 204 8.7 14.8 0.00 0.63 0.63 93 1011.4
20260506151326 69 223 7.8 13.9 0.00 0.63 0.63 94 1011.4
20260506151213 69 257 6.1 13.9 0.00 0.63 0.63 94 1011.3
20260506151140 68 159 6.1 13.9 0.00 0.63 0.63 94 1011.3
20260506151032 68 217 8.7 13.9 0.00 0.63 0.63 94 1011.3
20260506150920 68 171 8.7 13.9 0.00 0.63 0.63 95 1011.3
20260506150827 68 185 7.8 12.2 0.00 0.63 0.63 95 1011.3
20260506150734 68 157 6.1 12.2 0.00 0.63 0.63 95 1011.1
20260506150621 68 176 5.2 12.2 0.00 0.63 0.63 95 1011.1
20260506150555 68 200 6.1 12.2 0.00 0.63 0.63 95 1011.2
20260506150329 68 143 7.0 12.2 0.00 0.63 0.63 95 1011.2
20260506150216 68 184 7.0 14.8 0.00 0.63 0.63 95 1011.3
20260506150123 68 153 7.0 14.8 0.00 0.63 0.63 95 1011.3
20260506150010 68 134 7.0 14.8 0.00 0.63 0.63 95 1011.3
20260506145922 68 207 7.0 14.8 0.00 0.63 0.63 95 1011.3
20260506145850 68 177 6.1 14.8 0.00 0.63 0.63 95 1011.3
20260506145718 67 175 5.2 14.8 0.00 0.63 0.63 95 1011.6
20260506145625 67 161 6.1 14.8 0.00 0.63 0.63 95 1011.6
20260506145513 67 196 7.8 14.8 0.00 0.63 0.63 95 1011.5
20260506145421 67 228 7.0 13.9 0.00 0.63 0.63 95 1011.5
20260506145312 67 189 5.2 8.7 0.00 0.63 0.63 95 1011.6
20260506145221 67 173 4.3 9.6 0.00 0.63 0.63 95 1011.6
20260506145148 67 190 3.5 9.6 0.00 0.63 0.63 95 1011.4
20260506145059 67 167 4.3 9.6 0.00 0.63 0.63 95 1011.4
20260506144813 67 144 6.1 9.6 0.00 0.63 0.63 94 1011.4
20260506144744 67 225 6.1 9.6 0.00 0.63 0.63 95 1011.4
20260506144629 67 142 6.1 9.6 0.00 0.63 0.63 95 1011.2
20260506144536 67 161 6.1 8.7 0.00 0.63 0.63 95 1011.3
20260506144422 67 151 6.1 8.7 0.00 0.63 0.63 95 1011.3
20260506144330 67 143 5.2 8.7 0.00 0.63 0.63 95 1011.4
20260506144217 67 166 5.2 8.7 0.00 0.63 0.63 95 1011.7
20260506144110 67 146 5.2 11.3 0.00 0.63 0.63 95 1011.8
20260506144019 67 185 5.2 11.3 0.00 0.63 0.63 95 1011.7
20260506143926 67 149 4.3 11.3 0.00 0.63 0.63 95 1011.7
20260506143814 67 138 4.3 11.3 0.01 0.63 0.63 95 1011.7
20260506143722 67 196 5.2 11.3 0.01 0.63 0.63 95 1011.7
20260506143629 67 186 5.2 11.3 0.01 0.63 0.63 95 1011.7
20260506143545 67 182 5.2 11.3 0.02 0.63 0.63 96 1011.7
20260506143318 67 106 7.0 12.2 0.03 0.63 0.63 96 1011.7
20260506143225 67 178 7.0 12.2 0.03 0.63 0.63 96 1011.7
20260506143112 67 182 4.3 10.4 0.05 0.63 0.63 96 1011.6
20260506143025 67 103 5.2 10.4 0.05 0.63 0.63 95 1011.6
20260506142933 66 198 6.1 10.4 0.07 0.63 0.63 95 1011.6
20260506142819 66 175 6.1 10.4 0.07 0.63 0.63 95 1011.7
20260506142727 66 178 5.2 9.6 0.07 0.63 0.63 95 1011.7
20260506142614 66 201 4.3 8.7 0.10 0.63 0.63 95 1011.7
20260506142542 66 99 4.3 8.7 0.10 0.63 0.63 95 1011.7
20260506142413 66 178 4.3 9.6 0.12 0.63 0.63 95 1011.8
20260506142339 66 135 5.2 9.6 0.13 0.63 0.63 95 1011.8
20260506142226 66 142 5.2 9.6 0.13 0.63 0.63 95 1011.8
20260506142134 66 157 6.1 9.6 0.14 0.63 0.63 95 1011.8
20260506142104 66 167 6.1 9.6 0.15 0.63 0.63 95 1011.9
20260506141821 66 179 6.1 9.6 0.26 0.63 0.63 95 1012.0
20260506141728 66 167 6.1 9.6 0.29 0.63 0.63 95 1012.0
20260506141615 66 170 6.1 10.4 0.29 0.63 0.63 95 1012.1
20260506141523 66 184 4.3 10.4 0.29 0.63 0.63 95 1012.1
20260506141411 66 212 5.2 10.4 0.29 0.63 0.63 95 1012.0
20260506141317 66 156 6.1 10.4 0.30 0.63 0.63 95 1011.9
20260506141229 66 204 6.1 10.4 0.30 0.63 0.63 95 1011.9
20260506141136 66 217 6.1 10.4 0.31 0.63 0.63 95 1011.8
20260506141023 66 165 6.1 10.4 0.31 0.63 0.63 94 1011.8
20260506140910 66 199 6.1 10.4 0.36 0.63 0.63 94 1011.7
20260506140819 66 182 6.1 10.4 0.36 0.63 0.63 94 1011.7
20260506140710 66 176 5.2 9.6 0.52 0.63 0.63 94 1011.6
20260506140617 66 186 5.2 10.4 0.57 0.63 0.63 94 1011.6
20260506140547 66 157 5.2 10.4 0.57 0.63 0.63 94 1011.6
20260506140321 66 182 5.2 9.6 0.57 0.63 0.63 94 1011.8
20260506140229 66 170 5.2 9.6 0.58 0.63 0.63 94 1011.8
20260506140120 66 191 5.2 9.6 0.58 0.63 0.63 94 1011.8
20260506140027 66 166 6.1 9.6 0.58 0.63 0.63 94 1011.8
20260506135914 66 190 5.2 9.6 0.59 0.63 0.63 94 1011.9
20260506135822 66 186 4.3 9.6 0.59 0.63 0.63 95 1011.9
20260506135711 66 189 3.5 7.0 0.59 0.63 0.63 94 1011.8
20260506135622 66 217 2.6 5.2 0.59 0.63 0.63 94 1011.8
20260506135549 66 154 2.6 5.2 0.60 0.63 0.63 94 1011.7
20260506135417 66 218 2.6 5.2 0.60 0.63 0.63 94 1011.7
20260506135325 66 167 2.6 5.2 0.60 0.63 0.63 94 1011.7
20260506135213 66 198 2.6 6.1 0.60 0.63 0.63 94 1011.6
20260506135140 66 110 2.6 7.0 0.60 0.63 0.63 94 1011.6
20260506135053 66 186 2.6 7.0 0.61 0.63 0.63 94 1011.6
20260506134828 66 140 3.5 9.6 0.62 0.63 0.63 94 1011.3
20260506134716 66 107 3.5 9.6 0.62 0.63 0.63 94 1011.2
20260506134623 66 118 2.6 9.6 0.62 0.63 0.63 93 1011.2
20260506134510 66 158 3.5 9.6 0.63 0.63 0.63 93 1011.7
20260506134441 66 233 5.2 9.6 0.63 0.63 0.63 93 1012.0
20260506134328 66 211 6.1 9.6 0.63 0.63 0.63 93 1012.0
20260506134215 66 196 6.1 9.6 0.63 0.63 0.63 94 1012.1
20260506134123 66 216 6.1 9.6 0.63 0.63 0.63 94 1012.1
20260506134029 66 183 6.1 9.6 0.63 0.63 0.63 94 1012.1
20260506133917 66 202 5.2 7.8 0.62 0.62 0.62 94 1011.7
20260506133826 66 259 5.2 7.8 0.62 0.62 0.62 94 1011.7
20260506133715 66 155 4.3 8.7 0.62 0.62 0.62 94 1010.6
20260506133622 66 116 3.5 8.7 0.61 0.61 0.61 94 1010.6
20260506133553 67 134 2.6 8.7 0.61 0.61 0.61 94 1010.5
20260506133310 67 11 1.7 8.7 0.60 0.60 0.60 94 1011.8
20260506133238 67 85 0.9 8.7 0.59 0.59 0.59 94 1012.3
20260506133126 67 86 2.6 8.7 0.58 0.58 0.58 93 1012.3
20260506133013 67 188 5.2 8.7 0.57 0.57 0.57 94 1012.8
20260506132920 67 196 5.2 8.7 0.57 0.57 0.57 94 1012.8
20260506132829 67 171 5.2 7.8 0.56 0.56 0.56 94 1013.1
20260506132739 67 205 4.3 7.8 0.55 0.55 0.55 94 1013.3
20260506132626 67 213 3.5 7.8 0.53 0.53 0.54 93 1013.3
20260506132513 67 200 1.7 7.0 0.52 0.52 0.52 93 1013.2
20260506132421 67 227 1.7 5.2 0.51 0.51 0.51 93 1013.2
20260506132328 67 238 1.7 5.2 0.50 0.50 0.50 93 1013.1
20260506132216 67 331 1.7 5.2 0.49 0.49 0.49 93 1012.5
20260506132127 67 346 2.6 5.2 0.48 0.48 0.48 93 1012.5
20260506132058 67 9 2.6 7.8 0.39 0.39 0.39 93 1012.6
20260506131810 67 293 1.7 11.3 0.34 0.34 0.34 93 1013.8
20260506131737 67 237 1.7 11.3 0.34 0.34 0.34 92 1013.5
20260506131625 67 225 1.7 14.8 0.34 0.34 0.34 92 1013.5
20260506131536 67 232 1.7 14.8 0.34 0.34 0.34 92 1012.0
20260506131421 67 55 3.5 14.8 0.34 0.34 0.34 92 1012.0
20260506131328 67 32 3.5 14.8 0.33 0.33 0.33 91 1011.9
20260506131216 67 9 6.1 14.8 0.33 0.33 0.33 91 1012.7
20260506131124 67 302 7.0 14.8 0.32 0.32 0.32 91 1012.7
20260506131016 67 323 8.7 14.8 0.31 0.31 0.31 91 1013.0
20260506130925 67 344 8.7 14.8 0.27 0.27 0.27 91 1013.0
20260506130811 67 306 7.8 14.8 0.18 0.18 0.18 90 1013.4
20260506130719 67 317 5.2 13.9 0.11 0.11 0.11 90 1013.3
20260506130627 67 311 4.3 12.2 0.06 0.06 0.06 90 1013.3
20260506130601 68 310 4.3 12.2 0.06 0.06 0.06 90 1013.2
20260506130335 68 198 5.2 12.2 0.05 0.05 0.05 90 1012.0
20260506130222 68 192 7.0 12.2 0.05 0.05 0.05 89 1012.0
20260506130129 68 186 7.0 13.0 0.05 0.05 0.05 89 1011.8
20260506130017 68 190 7.0 13.0 0.04 0.04 0.04 89 1011.7
20260506125945 68 186 6.1 11.3 0.04 0.04 0.04 89 1011.7
20260506125815 68 214 7.0 11.3 0.04 0.04 0.04 89 1011.7
20260506125722 68 209 6.1 12.2 0.04 0.04 0.04 88 1011.7
20260506125630 68 211 5.2 12.2 0.04 0.04 0.04 88 1011.5
20260506125516 68 192 5.2 11.3 0.03 0.03 0.03 88 1011.6
20260506125424 68 223 5.2 10.4 0.03 0.03 0.03 88 1011.6
20260506125315 68 198 5.2 10.4 0.03 0.03 0.03 88 1011.7
20260506125222 68 227 5.2 13.0 0.03 0.03 0.03 87 1011.7
20260506125150 68 205 5.2 13.0 0.02 0.02 0.02 87 1011.6
20260506125120 69 211 5.2 13.0 0.01 0.01 0.01 87 1011.5
20260506124812 69 203 6.1 13.0 0.01 0.01 0.01 86 1011.5
20260506124724 69 196 7.0 13.0 0.01 0.01 0.01 86 1011.5
20260506124612 69 234 7.8 13.0 0.00 0.00 0.00 86 1011.7
20260506124520 69 203 7.8 13.0 0.00 0.00 0.00 86 1011.7
20260506124428 69 189 7.0 13.0 0.00 0.00 0.00 86 1011.7
20260506124315 69 200 6.1 13.9 0.00 0.00 0.00 85 1011.6
20260506124223 69 188 6.1 13.9 0.00 0.00 0.00 85 1011.6
20260506124136 69 153 6.1 13.9 0.00 0.00 0.00 85 1011.5
20260506124043 69 234 6.1 13.9 0.00 0.00 0.00 85 1011.5
20260506123929 69 247 5.2 13.9 0.00 0.00 0.00 85 1011.6
20260506123817 69 173 5.2 13.9 0.00 0.00 0.00 84 1011.4
20260506123724 69 212 6.1 13.9 0.00 0.00 0.00 84 1011.4
20260506123632 69 198 7.8 13.9 0.00 0.00 0.00 84 1011.4
20260506123608 69 142 8.7 13.9 0.00 0.00 0.00 84 1011.4
20260506123321 69 199 7.8 13.9 0.00 0.00 0.00 84 1011.4
20260506123229 69 184 7.8 13.9 0.00 0.00 0.00 84 1011.5
20260506123117 69 189 9.6 13.9 0.00 0.00 0.00 84 1011.3
20260506123025 69 215 8.7 12.2 0.00 0.00 0.00 84 1011.3
20260506122936 69 199 7.0 12.2 0.00 0.00 0.00 84 1011.4
20260506122823 69 279 6.1 12.2 0.00 0.00 0.00 84 1011.4
20260506122730 69 205 5.2 12.2 0.00 0.00 0.00 84 1011.4
20260506122617 69 193 7.0 12.2 0.00 0.00 0.00 83 1011.4
20260506122526 69 184 7.8 12.2 0.00 0.00 0.00 84 1011.4
20260506122433 69 200 7.8 12.2 0.00 0.00 0.00 83 1011.2
20260506122323 69 180 7.0 12.2 0.00 0.00 0.00 84 1011.2
20260506122250 69 180 7.0 12.2 0.00 0.00 0.00 83 1011.2
20260506122117 69 205 6.1 12.2 0.00 0.00 0.00 84 1011.1
20260506122047 69 208 7.0 12.2 0.00 0.00 0.00 84 1011.1
20260506121822 69 208 7.8 12.2 0.00 0.00 0.00 83 1011.1
20260506121714 69 211 7.8 12.2 0.00 0.00 0.00 83 1011.0
20260506121622 69 196 9.6 12.2 0.00 0.00 0.00 83 1011.0
20260506121529 69 243 9.6 13.9 0.00 0.00 0.00 83 1010.9
20260506121418 69 206 7.8 12.2 0.00 0.00 0.00 83 1010.7
20260506121326 69 215 7.0 12.2 0.00 0.00 0.00 83 1010.7
20260506121217 69 215 7.8 12.2 0.00 0.00 0.00 83 1010.7
20260506121125 69 217 7.8 10.4 0.00 0.00 0.00 83 1010.7
20260506121014 69 223 6.1 10.4 0.00 0.00 0.00 83 1010.7
20260506120920 69 170 5.2 11.3 0.00 0.00 0.00 83 1010.7
20260506120828 69 189 6.1 11.3 0.00 0.00 0.00 83 1010.6
20260506120717 69 149 6.1 11.3 0.00 0.00 0.00 83 1010.6
20260506120649 69 180 5.2 11.3 0.00 0.00 0.00 83 1010.6
20260506120558 69 173 5.2 11.3 0.00 0.00 0.00 83 1010.5
20260506120313 69 195 6.1 13.9 0.00 0.00 0.00 83 1010.5
20260506120221 69 190 7.8 13.9 0.00 0.00 0.00 83 1010.5
20260506120112 69 163 7.0 13.9 0.00 0.00 0.00 83 1010.6
20260506120040 69 206 6.1 13.9 0.00 0.00 0.00 83 1010.6
20260506115947 69 178 6.1 13.9 0.00 0.00 0.00 83 1010.5
20260506115814 69 157 7.0 13.9 0.00 0.00 0.00 83 1010.6
20260506115721 69 230 7.0 13.9 0.00 0.00 0.00 83 1010.6
20260506115628 69 223 8.7 13.9 0.00 0.00 0.00 83 1010.5
20260506115535 69 192 9.6 16.5 0.00 0.00 0.00 83 1010.5
20260506115427 69 183 7.8 16.5 0.00 0.00 0.00 83 1010.5
20260506115315 69 188 6.1 16.5 0.00 0.00 0.00 83 1010.6
20260506115222 69 178 6.1 16.5 0.00 0.00 0.00 83 1010.6
20260506115149 69 196 5.2 16.5 0.00 0.00 0.00 83 1010.5
20260506115100 69 165 5.2 16.5 0.00 0.00 0.00 83 1010.5
20260506114816 69 165 5.2 16.5 0.00 0.00 0.00 83 1010.5
20260506114723 69 200 7.8 16.5 0.00 0.00 0.00 83 1010.5
20260506114611 69 199 9.6 16.5 0.00 0.00 0.00 83 1010.5
20260506114519 69 221 8.7 13.9 0.00 0.00 0.00 83 1010.5
20260506114446 69 206 7.0 13.9 0.00 0.00 0.00 83 1010.5
20260506114312 69 216 8.7 13.9 0.00 0.00 0.00 83 1010.4
20260506114224 69 196 9.6 13.9 0.00 0.00 0.00 83 1010.4
20260506114111 69 223 7.8 13.9 0.00 0.00 0.00 82 1010.4
20260506114018 69 209 5.2 13.9 0.00 0.00 0.00 83 1010.3
20260506113926 69 219 6.1 13.9 0.00 0.00 0.00 83 1010.3
20260506113813 69 167 7.8 13.9 0.00 0.00 0.00 82 1010.2
20260506113724 69 186 7.0 13.9 0.00 0.00 0.00 82 1010.2
20260506113633 69 218 7.0 13.9 0.00 0.00 0.00 82 1010.2
20260506113602 69 183 6.1 12.2 0.00 0.00 0.00 82 1010.2
20260506113313 69 211 7.0 11.3 0.00 0.00 0.00 82 1010.1
20260506113240 69 184 7.0 11.3 0.00 0.00 0.00 82 1010.1
20260506113130 69 190 7.8 11.3 0.00 0.00 0.00 82 1010.1
20260506113018 69 202 6.1 11.3 0.00 0.00 0.00 82 1010.2
20260506112926 69 208 5.2 11.3 0.00 0.00 0.00 82 1010.2
20260506112815 69 205 5.2 11.3 0.00 0.00 0.00 82 1010.2
20260506112722 69 188 5.2 11.3 0.00 0.00 0.00 82 1010.2
20260506112613 69 186 6.1 11.3 0.00 0.00 0.00 82 1010.1
20260506112520 69 223 7.0 11.3 0.00 0.00 0.00 82 1010.1
20260506112428 69 188 8.7 14.8 0.00 0.00 0.00 82 1010.2
20260506112315 69 227 8.7 14.8 0.00 0.00 0.00 82 1010.0
20260506112224 69 186 6.1 14.8 0.00 0.00 0.00 82 1010.0
20260506112151 69 186 6.1 14.8 0.00 0.00 0.00 82 1010.0
20260506112125 69 194 5.2 14.8 0.00 0.00 0.00 82 1010.0
20260506111815 69 211 7.0 14.8 0.00 0.00 0.00 82 1009.8
20260506111743 69 167 7.0 14.8 0.00 0.00 0.00 82 1009.8
20260506111628 69 196 7.8 14.8 0.00 0.00 0.00 82 1009.8
20260506111514 69 196 6.1 13.9 0.00 0.00 0.00 82 1009.7
20260506111426 69 191 5.2 13.0 0.00 0.00 0.00 82 1009.7
20260506111333 69 226 5.2 13.0 0.00 0.00 0.00 82 1009.7
20260506111220 69 174 6.1 13.0 0.00 0.00 0.00 82 1009.7
20260506111127 69 177 7.0 13.0 0.00 0.00 0.00 82 1009.7
20260506111034 69 187 8.7 13.0 0.00 0.00 0.00 82 1009.7
20260506110941 69 197 9.6 16.5 0.00 0.00 0.00 82 1009.7
20260506110827 69 163 8.7 16.5 0.00 0.00 0.00 82 1009.8
20260506110739 69 194 7.8 16.5 0.00 0.00 0.00 81 1009.8
20260506110625 69 211 6.1 16.5 0.00 0.00 0.00 81 1009.8
20260506110555 69 200 6.1 16.5 0.00 0.00 0.00 81 1009.8
20260506110349 69 228 7.8 16.5 0.00 0.00 0.00 81 1009.8
20260506110214 69 223 8.7 16.5 0.00 0.00 0.00 81 1009.7
20260506110125 69 169 9.6 16.5 0.00 0.00 0.00 81 1009.7
20260506110012 69 159 7.0 13.0 0.00 0.00 0.00 81 1009.6
20260506105920 69 184 7.0 11.3 0.00 0.00 0.00 81 1009.6
20260506105827 69 178 7.0 11.3 0.00 0.00 0.00 81 1009.6
20260506105715 69 184 6.1 12.2 0.00 0.00 0.00 81 1009.7
20260506105621 69 202 5.2 12.2 0.00 0.00 0.00 81 1009.7
20260506105512 69 205 6.1 12.2 0.00 0.00 0.00 81 1009.7
20260506105419 69 180 5.2 12.2 0.00 0.00 0.00 81 1009.7
20260506105327 69 198 4.3 11.3 0.00 0.00 0.00 81 1009.7
20260506105235 69 221 5.2 11.3 0.00 0.00 0.00 81 1009.8
20260506105122 69 228 5.2 11.3 0.00 0.00 0.00 81 1009.8
20260506105057 69 187 6.1 11.3 0.00 0.00 0.00 81 1009.7
20260506104831 69 196 6.1 11.3 0.00 0.00 0.00 81 1009.8
20260506104717 69 188 7.0 11.3 0.00 0.00 0.00 81 1009.8
20260506104625 69 188 7.8 11.3 0.00 0.00 0.00 81 1009.8
20260506104512 69 200 7.0 13.0 0.00 0.00 0.00 81 1009.7
20260506104424 69 200 6.1 13.0 0.00 0.00 0.00 81 1009.7
20260506104312 69 209 4.3 13.0 0.00 0.00 0.00 81 1009.8
20260506104220 69 144 3.5 13.0 0.00 0.00 0.00 81 1009.8
20260506104127 69 234 3.5 13.0 0.00 0.00 0.00 81 1009.7